GEFSNGP_prec_meanprecacc_222.txt.gz
Total_Precipitation_Accumulation
0.12 0.21 0.24 0.24 0.22 0.18 0.15 0.12 0.21 0.26 0.37 0.45 0.48 0.61 0.77 0.91 0.91 0.88 0.72 0.62 0.69 0.69 0.75 0.77 0.77 0.84 0.80 0.78 0.84 0.98 1.16 1.28 1.42 1.42 1.40 1.39 1.45 1.49 1.51 1.59 1.59 1.64 1.70 1.73
0.16 0.19 0.24 0.27 0.25 0.19 0.13 0.11 0.16 0.24 0.38 0.50 0.57 0.67 0.74 0.71 0.64 0.59 0.54 0.44 0.42 0.58 0.67 0.63 0.62 0.64 0.60 0.65 0.79 0.94 1.04 1.15 1.35 1.48 1.51 1.49 1.52 1.60 1.64 1.62 1.62 1.64 1.63 1.70
0.25 0.24 0.25 0.34 0.33 0.24 0.15 0.14 0.20 0.32 0.49 0.65 0.55 0.55 0.61 0.63 0.61 0.57 0.54 0.38 0.32 0.40 0.55 0.54 0.54 0.55 0.64 0.78 0.90 1.02 1.16 1.30 1.49 1.58 1.66 1.67 1.61 1.70 1.65 1.65 1.70 1.68 1.63 1.62
0.31 0.42 0.51 0.37 0.30 0.29 0.29 0.26 0.28 0.40 0.42 0.56 0.56 0.61 0.73 0.73 0.71 0.55 0.49 0.39 0.34 0.36 0.40 0.47 0.53 0.60 0.74 1.00 1.20 1.24 1.38 1.57 1.69 1.78 1.74 1.71 1.70 1.73 1.79 1.87 1.89 1.86 1.80 1.71
0.47 0.60 0.52 0.44 0.32 0.36 0.41 0.54 0.55 0.63 0.61 0.56 0.55 0.66 0.74 0.64 0.57 0.57 0.47 0.43 0.42 0.41 0.47 0.55 0.59 0.63 0.83 1.05 1.28 1.41 1.47 1.61 1.78 1.87 1.89 1.91 1.93 1.87 1.92 2.00 1.96 1.91 1.88 1.91
0.59 0.74 0.73 0.61 0.48 0.47 0.58 1.02 0.86 0.79 0.80 0.68 0.63 0.76 0.82 0.79 0.72 0.65 0.57 0.53 0.52 0.52 0.60 0.73 0.81 0.85 0.98 1.11 1.24 1.42 1.51 1.62 1.79 2.00 2.05 2.09 2.20 2.25 2.18 2.12 2.02 2.07 2.09 2.07
0.74 0.80 0.87 0.74 0.68 0.71 1.10 1.38 1.07 0.90 0.86 0.82 0.91 0.93 0.88 0.79 0.79 0.72 0.61 0.63 0.60 0.61 0.69 0.85 0.97 1.06 1.18 1.32 1.44 1.45 1.52 1.65 1.84 2.01 2.11 2.16 2.30 2.39 2.37 2.34 2.32 2.27 2.20 2.22
0.88 1.07 1.24 0.87 0.83 1.23 1.49 1.25 1.24 1.20 1.11 1.00 0.97 0.92 0.88 0.78 0.75 0.69 0.67 0.72 0.72 0.75 0.89 1.07 1.19 1.21 1.28 1.35 1.40 1.42 1.44 1.54 1.67 1.84 1.89 1.97 2.20 2.31 2.38 2.41 2.37 2.28 2.21 2.10
1.17 1.29 1.19 1.00 1.09 1.26 1.38 1.54 1.45 1.33 1.30 1.13 1.10 1.01 0.91 0.81 0.76 0.72 0.69 0.74 0.78 0.83 1.04 1.27 1.40 1.43 1.48 1.37 1.42 1.45 1.49 1.62 1.74 1.83 1.89 2.01 2.10 2.12 2.19 2.26 2.22 2.13 2.12 2.05
1.35 1.39 1.30 1.17 1.05 0.99 1.12 1.23 1.21 1.20 1.19 1.14 1.11 1.05 0.96 0.83 0.74 0.71 0.70 0.66 0.70 0.79 0.88 0.99 1.18 1.34 1.43 1.46 1.51 1.53 1.57 1.62 1.68 1.80 1.83 1.86 1.97 2.06 2.16 2.26 2.34 2.25 2.15 2.05
1.59 1.50 1.37 1.38 1.27 1.15 1.23 1.29 1.21 1.14 1.11 1.12 1.09 1.03 0.89 0.83 0.79 0.74 0.69 0.67 0.71 0.80 0.81 0.86 0.94 1.04 1.12 1.21 1.33 1.39 1.45 1.50 1.55 1.57 1.65 1.73 1.77 1.85 1.87 1.96 1.97 1.96 1.91 1.88
1.90 1.66 1.49 1.47 1.36 1.24 1.29 1.26 1.33 1.39 1.35 1.15 1.04 1.09 1.00 0.86 0.76 0.74 0.73 0.72 0.76 0.78 0.78 0.81 0.85 0.99 1.10 1.18 1.32 1.44 1.52 1.54 1.47 1.43 1.48 1.53 1.56 1.55 1.54 1.47 1.46 1.42 1.42 1.43
1.54 1.39 1.34 1.33 1.29 1.21 1.23 1.15 1.14 1.21 1.24 1.14 1.07 1.03 1.06 0.95 0.86 0.78 0.72 0.69 0.74 0.80 0.78 0.79 0.81 0.92 1.01 1.10 1.21 1.31 1.40 1.44 1.41 1.39 1.45 1.44 1.45 1.48 1.51 1.43 1.32 1.24 1.21 1.20
1.34 1.27 1.27 1.22 1.17 1.16 1.16 1.10 0.99 0.98 1.05 1.06 1.06 1.09 1.15 1.09 0.99 0.92 0.86 0.79 0.74 0.73 0.71 0.73 0.82 0.85 0.93 1.02 1.10 1.16 1.21 1.26 1.33 1.41 1.46 1.51 1.54 1.57 1.64 1.71 1.64 1.46 1.29 1.20
1.39 1.28 1.18 1.03 1.02 1.05 1.03 0.98 0.90 0.86 0.99 1.11 1.05 1.06 1.10 0.98 0.92 0.88 0.84 0.80 0.77 0.75 0.78 0.80 0.85 0.88 0.94 1.05 1.12 1.12 1.13 1.15 1.16 1.23 1.30 1.36 1.37 1.41 1.49 1.58 1.61 1.51 1.36 1.22
1.45 1.32 1.12 0.96 0.98 1.07 1.07 1.04 0.96 0.85 0.82 0.93 0.99 0.96 0.98 0.91 0.82 0.80 0.81 0.84 0.90 0.91 0.92 0.93 0.98 0.94 0.98 1.07 1.13 1.15 1.10 1.11 1.09 1.09 1.09 1.09 1.11 1.16 1.24 1.33 1.38 1.32 1.22 1.10
1.45 1.37 1.20 1.03 0.97 0.97 0.98 1.00 0.96 0.87 0.76 0.78 0.88 0.92 0.94 0.87 0.78 0.76 0.78 0.81 0.86 0.88 0.91 0.98 1.03 1.03 1.09 1.14 1.15 1.15 1.09 1.05 1.02 1.00 0.98 0.98 1.00 1.04 1.08 1.11 1.15 1.10 1.02 0.88
1.32 1.22 1.11 1.03 0.94 0.92 0.93 0.88 0.86 0.87 0.82 0.78 0.81 0.85 0.86 0.91 0.92 0.89 0.85 0.85 0.84 0.80 0.76 0.78 0.85 0.93 1.04 1.15 1.19 1.16 1.03 0.93 0.87 0.85 0.89 0.93 0.95 1.00 1.04 1.03 1.00 0.94 0.87 0.72
1.18 1.13 1.04 1.00 0.98 0.94 0.90 0.85 0.83 0.83 0.78 0.73 0.78 0.84 0.87 0.90 0.98 0.96 0.90 0.90 0.96 0.98 0.86 0.75 0.81 0.81 0.87 1.04 1.16 1.17 1.04 0.91 0.83 0.78 0.78 0.81 0.84 0.90 0.94 0.91 0.83 0.76 0.70 0.65
1.18 1.21 1.20 1.17 1.10 1.05 0.96 0.86 0.83 0.83 0.78 0.74 0.75 0.78 0.83 0.86 0.94 0.98 0.97 0.90 0.91 1.00 0.98 0.89 0.78 0.71 0.73 0.87 1.08 1.06 1.00 0.93 0.83 0.73 0.74 0.79 0.82 0.86 0.87 0.85 0.77 0.71 0.67 0.64
1.20 1.28 1.26 1.21 1.15 1.03 0.91 0.84 0.84 0.84 0.80 0.80 0.82 0.83 0.87 0.88 0.87 0.97 1.06 0.97 0.83 0.89 0.95 0.90 0.78 0.69 0.67 0.78 0.97 1.00 0.95 0.89 0.80 0.70 0.67 0.70 0.73 0.79 0.82 0.82 0.77 0.69 0.67 0.68
1.34 1.41 1.29 1.13 1.07 0.97 0.85 0.79 0.76 0.73 0.72 0.79 0.86 0.90 1.01 1.05 1.00 0.99 0.95 0.92 0.89 0.96 0.95 0.86 0.77 0.67 0.61 0.66 0.75 0.87 0.85 0.79 0.72 0.65 0.58 0.59 0.65 0.72 0.73 0.72 0.69 0.65 0.64 0.65
1.31 1.27 1.17 1.00 0.96 0.84 0.70 0.67 0.66 0.63 0.64 0.73 0.87 1.02 1.22 1.23 1.16 1.20 1.06 0.84 0.82 0.93 0.90 0.84 0.78 0.67 0.58 0.56 0.63 0.70 0.73 0.74 0.70 0.61 0.52 0.52 0.56 0.60 0.63 0.58 0.58 0.58 0.54 0.50
1.11 1.01 0.91 0.80 0.83 0.80 0.74 0.70 0.68 0.66 0.68 0.74 0.79 0.95 1.23 1.38 1.20 0.98 0.92 0.88 0.85 0.83 0.78 0.79 0.73 0.64 0.60 0.55 0.56 0.63 0.69 0.73 0.68 0.61 0.53 0.53 0.53 0.54 0.57 0.54 0.52 0.48 0.43 0.43
1.09 0.92 0.78 0.75 0.85 0.95 0.92 0.86 0.83 0.82 0.85 0.87 0.82 0.86 1.02 1.27 1.30 0.98 0.78 0.70 0.73 0.72 0.70 0.74 0.75 0.71 0.61 0.53 0.53 0.62 0.69 0.71 0.71 0.65 0.60 0.60 0.57 0.58 0.57 0.54 0.51 0.48 0.47 0.47
1.05 0.94 0.83 0.77 0.81 0.96 1.03 1.04 1.10 1.12 1.19 1.26 1.17 1.04 1.07 1.14 1.07 0.92 0.78 0.65 0.63 0.66 0.63 0.66 0.71 0.74 0.64 0.56 0.56 0.62 0.67 0.72 0.72 0.68 0.66 0.64 0.59 0.58 0.57 0.56 0.54 0.52 0.49 0.47
1.08 0.98 0.91 0.85 0.84 0.93 1.05 1.19 1.31 1.38 1.49 1.64 1.62 1.33 1.20 1.20 1.11 0.98 0.85 0.74 0.71 0.69 0.65 0.61 0.60 0.62 0.65 0.64 0.62 0.61 0.65 0.72 0.72 0.72 0.70 0.64 0.59 0.57 0.55 0.50 0.48 0.47 0.43 0.39

GEFSNGP_prec_meanprecacc_228.txt.gz
Total_Precipitation_Accumulation
0.12 0.21 0.24 0.24 0.22 0.18 0.15 0.12 0.22 0.26 0.37 0.45 0.48 0.61 0.78 0.92 0.92 0.88 0.72 0.63 0.69 0.70 0.76 0.79 0.79 0.86 0.81 0.79 0.84 0.98 1.16 1.28 1.42 1.43 1.41 1.40 1.46 1.51 1.53 1.62 1.62 1.68 1.73 1.75
0.16 0.19 0.24 0.27 0.25 0.19 0.13 0.12 0.16 0.24 0.38 0.50 0.57 0.67 0.74 0.71 0.65 0.59 0.54 0.45 0.43 0.59 0.68 0.64 0.63 0.66 0.61 0.66 0.79 0.94 1.04 1.15 1.35 1.48 1.51 1.51 1.55 1.63 1.68 1.68 1.68 1.71 1.67 1.72
0.25 0.24 0.25 0.34 0.33 0.24 0.15 0.14 0.20 0.32 0.49 0.65 0.55 0.55 0.62 0.63 0.61 0.57 0.54 0.39 0.34 0.41 0.55 0.55 0.56 0.56 0.66 0.79 0.91 1.02 1.16 1.30 1.49 1.59 1.68 1.69 1.65 1.74 1.71 1.71 1.75 1.72 1.66 1.64
0.31 0.42 0.51 0.37 0.30 0.29 0.29 0.26 0.28 0.40 0.42 0.56 0.56 0.61 0.73 0.73 0.71 0.55 0.49 0.39 0.35 0.36 0.41 0.48 0.54 0.61 0.75 1.01 1.22 1.25 1.39 1.58 1.69 1.80 1.77 1.75 1.74 1.75 1.82 1.89 1.91 1.88 1.82 1.73
0.47 0.60 0.52 0.44 0.32 0.36 0.41 0.54 0.55 0.64 0.61 0.56 0.56 0.66 0.75 0.65 0.57 0.57 0.47 0.43 0.42 0.41 0.48 0.57 0.61 0.65 0.86 1.08 1.30 1.43 1.49 1.62 1.79 1.89 1.93 1.96 1.98 1.92 1.96 2.04 1.99 1.93 1.89 1.92
0.59 0.74 0.73 0.61 0.48 0.47 0.58 1.02 0.86 0.79 0.81 0.69 0.64 0.76 0.83 0.79 0.72 0.66 0.58 0.54 0.53 0.54 0.63 0.77 0.86 0.90 1.03 1.15 1.27 1.44 1.53 1.65 1.82 2.03 2.09 2.14 2.27 2.33 2.25 2.20 2.08 2.10 2.10 2.09
0.74 0.80 0.87 0.74 0.68 0.71 1.11 1.38 1.07 0.90 0.86 0.83 0.92 0.93 0.89 0.80 0.80 0.74 0.63 0.64 0.62 0.64 0.75 0.94 1.09 1.15 1.24 1.36 1.47 1.48 1.56 1.69 1.88 2.04 2.13 2.19 2.34 2.43 2.41 2.38 2.36 2.29 2.22 2.24
0.89 1.07 1.24 0.87 0.83 1.24 1.49 1.25 1.24 1.20 1.11 1.00 0.98 0.94 0.89 0.80 0.77 0.72 0.70 0.74 0.74 0.79 0.93 1.15 1.32 1.28 1.32 1.38 1.42 1.45 1.47 1.58 1.70 1.86 1.91 2.00 2.23 2.33 2.40 2.44 2.40 2.30 2.24 2.11
1.18 1.30 1.20 1.01 1.09 1.26 1.39 1.55 1.46 1.33 1.31 1.14 1.11 1.02 0.92 0.83 0.79 0.76 0.72 0.78 0.81 0.87 1.07 1.32 1.46 1.47 1.52 1.40 1.45 1.48 1.52 1.63 1.76 1.84 1.91 2.03 2.12 2.13 2.20 2.27 2.24 2.15 2.14 2.06
1.35 1.40 1.32 1.18 1.06 0.99 1.12 1.23 1.22 1.21 1.20 1.14 1.12 1.06 0.97 0.85 0.78 0.77 0.77 0.73 0.77 0.86 0.94 1.03 1.22 1.39 1.47 1.50 1.55 1.56 1.59 1.63 1.69 1.81 1.84 1.87 1.98 2.07 2.16 2.27 2.35 2.26 2.17 2.06
1.60 1.51 1.39 1.40 1.29 1.16 1.23 1.30 1.21 1.15 1.12 1.12 1.10 1.04 0.91 0.86 0.83 0.81 0.78 0.73 0.76 0.85 0.86 0.90 0.98 1.09 1.17 1.26 1.37 1.42 1.47 1.52 1.56 1.58 1.67 1.74 1.79 1.86 1.88 1.97 1.98 1.98 1.93 1.90
1.91 1.67 1.51 1.48 1.37 1.26 1.30 1.28 1.34 1.41 1.37 1.16 1.05 1.13 1.05 0.92 0.81 0.79 0.79 0.77 0.81 0.83 0.82 0.84 0.88 1.03 1.14 1.22 1.35 1.46 1.54 1.56 1.48 1.45 1.50 1.54 1.56 1.56 1.55 1.49 1.49 1.45 1.45 1.45
1.55 1.39 1.35 1.34 1.31 1.24 1.25 1.18 1.17 1.24 1.27 1.17 1.10 1.07 1.13 1.03 0.94 0.87 0.81 0.76 0.80 0.85 0.83 0.84 0.86 0.96 1.04 1.12 1.23 1.33 1.41 1.45 1.42 1.40 1.46 1.45 1.46 1.48 1.51 1.45 1.35 1.27 1.25 1.22
1.35 1.29 1.29 1.24 1.20 1.18 1.19 1.14 1.02 1.01 1.08 1.10 1.11 1.14 1.22 1.15 1.05 1.00 0.95 0.87 0.80 0.79 0.77 0.79 0.85 0.88 0.96 1.03 1.11 1.17 1.22 1.27 1.34 1.42 1.47 1.52 1.55 1.58 1.65 1.72 1.65 1.48 1.32 1.22
1.42 1.31 1.20 1.06 1.05 1.10 1.07 1.02 0.95 0.90 1.03 1.15 1.11 1.12 1.16 1.04 0.98 0.95 0.90 0.86 0.83 0.81 0.83 0.85 0.89 0.91 0.96 1.06 1.13 1.14 1.14 1.16 1.18 1.25 1.32 1.38 1.39 1.43 1.51 1.60 1.63 1.54 1.38 1.25
1.48 1.35 1.16 1.01 1.04 1.13 1.12 1.08 0.99 0.88 0.85 0.96 1.04 1.00 1.02 0.94 0.86 0.87 0.89 0.90 0.96 0.97 0.98 0.97 1.01 0.97 1.01 1.09 1.14 1.17 1.12 1.12 1.11 1.10 1.10 1.11 1.13 1.19 1.27 1.36 1.41 1.34 1.25 1.13
1.49 1.41 1.25 1.08 1.02 1.03 1.04 1.04 0.99 0.89 0.79 0.81 0.91 0.96 0.97 0.91 0.84 0.83 0.86 0.89 0.94 0.96 0.97 1.02 1.07 1.06 1.12 1.17 1.17 1.17 1.10 1.07 1.04 1.01 0.99 0.99 1.02 1.07 1.11 1.15 1.18 1.13 1.04 0.91
1.35 1.26 1.14 1.06 0.98 0.95 0.97 0.91 0.88 0.90 0.86 0.83 0.85 0.89 0.89 0.94 0.97 0.95 0.90 0.90 0.90 0.87 0.83 0.83 0.90 0.97 1.07 1.19 1.21 1.18 1.05 0.95 0.89 0.87 0.91 0.95 0.97 1.02 1.07 1.06 1.03 0.96 0.89 0.75
1.19 1.15 1.06 1.02 1.00 0.97 0.93 0.87 0.85 0.87 0.83 0.78 0.83 0.89 0.91 0.96 1.05 1.01 0.94 0.95 1.01 1.04 0.92 0.81 0.87 0.85 0.91 1.08 1.20 1.20 1.06 0.94 0.86 0.81 0.81 0.83 0.86 0.92 0.96 0.93 0.85 0.78 0.71 0.67
1.20 1.23 1.21 1.18 1.11 1.07 0.98 0.88 0.84 0.86 0.83 0.79 0.80 0.84 0.90 0.93 1.02 1.06 1.04 0.95 0.95 1.04 1.03 0.94 0.84 0.76 0.77 0.90 1.11 1.08 1.03 0.96 0.87 0.77 0.77 0.82 0.85 0.88 0.89 0.86 0.79 0.73 0.68 0.65
1.23 1.30 1.28 1.22 1.16 1.05 0.93 0.85 0.86 0.86 0.83 0.85 0.88 0.88 0.92 0.93 0.93 1.05 1.14 1.02 0.87 0.94 1.00 0.96 0.82 0.73 0.70 0.82 1.00 1.03 0.99 0.94 0.84 0.73 0.69 0.72 0.75 0.80 0.84 0.84 0.78 0.70 0.68 0.68
1.36 1.43 1.31 1.15 1.08 0.98 0.86 0.81 0.78 0.76 0.76 0.84 0.91 0.94 1.07 1.11 1.06 1.04 1.01 0.97 0.94 1.01 0.99 0.90 0.80 0.70 0.64 0.69 0.78 0.90 0.88 0.82 0.75 0.67 0.60 0.60 0.65 0.73 0.74 0.74 0.71 0.67 0.67 0.68
1.34 1.30 1.20 1.02 0.98 0.85 0.71 0.69 0.68 0.66 0.68 0.78 0.93 1.07 1.27 1.28 1.21 1.25 1.11 0.88 0.87 0.97 0.93 0.87 0.81 0.70 0.61 0.58 0.65 0.73 0.75 0.76 0.72 0.63 0.53 0.53 0.57 0.61 0.64 0.60 0.60 0.61 0.57 0.53
1.15 1.04 0.94 0.83 0.85 0.81 0.76 0.73 0.71 0.71 0.74 0.79 0.85 1.00 1.26 1.42 1.25 1.02 0.97 0.93 0.90 0.87 0.82 0.82 0.77 0.67 0.62 0.57 0.58 0.65 0.71 0.74 0.70 0.63 0.55 0.55 0.55 0.55 0.58 0.56 0.54 0.51 0.45 0.45
1.12 0.95 0.81 0.78 0.88 0.98 0.95 0.89 0.87 0.87 0.91 0.92 0.86 0.90 1.05 1.30 1.33 1.02 0.81 0.73 0.77 0.76 0.74 0.78 0.79 0.75 0.64 0.56 0.56 0.64 0.72 0.75 0.75 0.70 0.65 0.65 0.61 0.61 0.61 0.57 0.54 0.52 0.51 0.51
1.08 0.97 0.86 0.80 0.85 1.00 1.07 1.08 1.14 1.16 1.23 1.29 1.20 1.07 1.09 1.16 1.09 0.95 0.80 0.68 0.67 0.71 0.67 0.70 0.75 0.77 0.67 0.58 0.60 0.66 0.71 0.76 0.77 0.73 0.72 0.70 0.65 0.63 0.63 0.60 0.59 0.57 0.54 0.51
1.10 1.01 0.94 0.89 0.88 0.98 1.11 1.24 1.35 1.41 1.52 1.67 1.65 1.35 1.22 1.22 1.13 1.01 0.88 0.77 0.76 0.75 0.71 0.68 0.66 0.67 0.69 0.68 0.65 0.64 0.69 0.76 0.75 0.75 0.74 0.68 0.63 0.62 0.60 0.55 0.52 0.51 0.47 0.43

GEFSNGP_prec_meanprecacc_234.txt.gz
Total_Precipitation_Accumulation
0.12 0.21 0.24 0.24 0.22 0.18 0.15 0.12 0.22 0.26 0.37 0.45 0.48 0.61 0.78 0.92 0.92 0.88 0.72 0.63 0.70 0.70 0.76 0.79 0.80 0.87 0.81 0.80 0.85 0.99 1.17 1.29 1.43 1.44 1.42 1.41 1.46 1.52 1.54 1.62 1.62 1.68 1.73 1.75
0.16 0.19 0.24 0.27 0.25 0.19 0.13 0.12 0.16 0.24 0.38 0.50 0.57 0.67 0.74 0.71 0.65 0.59 0.55 0.45 0.43 0.60 0.69 0.65 0.64 0.66 0.61 0.67 0.80 0.94 1.05 1.16 1.36 1.49 1.52 1.51 1.55 1.63 1.68 1.68 1.69 1.71 1.68 1.73
0.25 0.24 0.25 0.34 0.33 0.24 0.15 0.14 0.20 0.32 0.49 0.65 0.55 0.55 0.62 0.63 0.61 0.57 0.55 0.40 0.34 0.41 0.56 0.55 0.56 0.57 0.66 0.79 0.92 1.03 1.17 1.31 1.50 1.60 1.68 1.70 1.65 1.75 1.72 1.72 1.75 1.72 1.66 1.65
0.31 0.42 0.51 0.37 0.30 0.29 0.29 0.26 0.28 0.40 0.42 0.56 0.56 0.61 0.73 0.73 0.71 0.55 0.49 0.39 0.35 0.36 0.41 0.48 0.55 0.62 0.76 1.02 1.22 1.26 1.40 1.59 1.70 1.81 1.78 1.76 1.75 1.77 1.84 1.91 1.92 1.89 1.82 1.74
0.47 0.60 0.52 0.44 0.32 0.36 0.41 0.54 0.56 0.64 0.61 0.56 0.56 0.66 0.75 0.65 0.57 0.57 0.47 0.43 0.42 0.41 0.48 0.57 0.62 0.66 0.87 1.09 1.31 1.44 1.50 1.63 1.80 1.90 1.95 1.98 2.00 1.95 1.99 2.06 2.01 1.94 1.90 1.93
0.59 0.74 0.73 0.61 0.48 0.47 0.58 1.02 0.86 0.79 0.81 0.69 0.64 0.76 0.83 0.79 0.72 0.66 0.58 0.54 0.53 0.55 0.63 0.77 0.87 0.91 1.05 1.16 1.29 1.45 1.53 1.65 1.83 2.04 2.11 2.15 2.28 2.34 2.27 2.22 2.10 2.12 2.11 2.09
0.74 0.80 0.87 0.74 0.68 0.71 1.11 1.38 1.07 0.91 0.86 0.83 0.92 0.94 0.90 0.80 0.80 0.74 0.63 0.65 0.63 0.65 0.77 0.96 1.10 1.16 1.25 1.38 1.49 1.50 1.57 1.70 1.89 2.06 2.14 2.21 2.35 2.44 2.42 2.39 2.37 2.31 2.23 2.25
0.89 1.07 1.24 0.87 0.83 1.24 1.49 1.25 1.24 1.20 1.12 1.01 0.98 0.94 0.90 0.81 0.78 0.73 0.71 0.75 0.75 0.80 0.94 1.16 1.33 1.29 1.33 1.39 1.44 1.47 1.48 1.59 1.71 1.87 1.92 2.01 2.24 2.34 2.41 2.44 2.40 2.31 2.24 2.12
1.18 1.30 1.20 1.01 1.09 1.26 1.39 1.55 1.46 1.34 1.31 1.14 1.11 1.02 0.92 0.84 0.80 0.77 0.73 0.79 0.82 0.88 1.09 1.33 1.47 1.48 1.53 1.42 1.47 1.49 1.52 1.64 1.76 1.85 1.92 2.03 2.13 2.14 2.20 2.28 2.25 2.16 2.14 2.07
1.35 1.40 1.32 1.18 1.06 0.99 1.12 1.23 1.22 1.21 1.20 1.15 1.12 1.06 0.97 0.86 0.78 0.78 0.78 0.74 0.78 0.87 0.96 1.06 1.25 1.41 1.49 1.53 1.57 1.57 1.60 1.63 1.70 1.81 1.85 1.88 1.99 2.08 2.17 2.28 2.36 2.27 2.17 2.07
1.61 1.51 1.39 1.40 1.29 1.16 1.23 1.30 1.21 1.15 1.12 1.13 1.10 1.05 0.91 0.87 0.84 0.81 0.79 0.74 0.77 0.86 0.88 0.92 1.01 1.12 1.20 1.28 1.40 1.45 1.49 1.54 1.57 1.59 1.68 1.76 1.80 1.87 1.89 1.98 2.00 1.99 1.95 1.92
1.92 1.67 1.51 1.48 1.37 1.26 1.31 1.28 1.35 1.41 1.37 1.16 1.05 1.13 1.06 0.92 0.82 0.80 0.80 0.78 0.81 0.84 0.83 0.86 0.91 1.06 1.16 1.25 1.38 1.49 1.56 1.57 1.50 1.46 1.51 1.55 1.58 1.56 1.56 1.50 1.50 1.47 1.46 1.46
1.56 1.40 1.36 1.35 1.32 1.24 1.25 1.18 1.17 1.25 1.28 1.18 1.11 1.08 1.13 1.04 0.95 0.88 0.82 0.76 0.80 0.86 0.84 0.86 0.88 0.99 1.07 1.15 1.26 1.36 1.44 1.47 1.44 1.41 1.47 1.46 1.47 1.49 1.53 1.47 1.36 1.29 1.26 1.23
1.36 1.30 1.29 1.25 1.20 1.19 1.19 1.15 1.03 1.02 1.10 1.11 1.12 1.15 1.23 1.17 1.07 1.01 0.96 0.88 0.80 0.80 0.79 0.81 0.89 0.92 1.00 1.08 1.14 1.19 1.25 1.31 1.37 1.45 1.49 1.54 1.57 1.60 1.67 1.73 1.67 1.50 1.34 1.24
1.44 1.33 1.22 1.07 1.06 1.10 1.08 1.04 0.96 0.91 1.05 1.17 1.13 1.14 1.19 1.07 1.01 0.96 0.91 0.87 0.84 0.82 0.85 0.86 0.92 0.94 1.00 1.10 1.17 1.17 1.17 1.19 1.20 1.27 1.34 1.40 1.41 1.45 1.52 1.61 1.64 1.54 1.39 1.27
1.50 1.36 1.18 1.03 1.06 1.14 1.14 1.10 1.01 0.89 0.86 0.99 1.08 1.04 1.07 1.00 0.90 0.90 0.91 0.92 0.98 0.99 0.99 0.98 1.03 0.99 1.04 1.12 1.17 1.19 1.14 1.15 1.13 1.12 1.13 1.14 1.16 1.22 1.29 1.38 1.43 1.36 1.26 1.15
1.51 1.43 1.27 1.10 1.04 1.03 1.05 1.07 1.01 0.91 0.79 0.82 0.94 0.99 1.02 0.97 0.88 0.86 0.89 0.92 0.96 0.98 1.00 1.05 1.10 1.10 1.16 1.20 1.20 1.19 1.12 1.09 1.07 1.04 1.02 1.02 1.04 1.10 1.14 1.17 1.21 1.15 1.06 0.93
1.36 1.28 1.16 1.08 0.99 0.97 0.98 0.93 0.90 0.92 0.88 0.84 0.86 0.90 0.92 0.99 1.02 0.98 0.92 0.93 0.93 0.90 0.87 0.87 0.94 1.01 1.12 1.24 1.26 1.22 1.08 0.98 0.91 0.90 0.94 0.98 0.99 1.04 1.09 1.09 1.05 0.99 0.91 0.76
1.21 1.16 1.08 1.03 1.01 0.98 0.94 0.88 0.85 0.88 0.84 0.79 0.84 0.90 0.93 0.97 1.07 1.03 0.96 0.97 1.03 1.06 0.94 0.84 0.91 0.89 0.95 1.13 1.26 1.26 1.10 0.97 0.89 0.84 0.84 0.86 0.88 0.94 0.98 0.95 0.87 0.80 0.74 0.70
1.20 1.23 1.23 1.19 1.13 1.08 0.99 0.89 0.85 0.86 0.84 0.80 0.82 0.85 0.91 0.94 1.03 1.07 1.05 0.96 0.96 1.07 1.06 0.99 0.88 0.80 0.81 0.96 1.19 1.15 1.09 1.00 0.90 0.80 0.81 0.85 0.88 0.91 0.91 0.88 0.81 0.74 0.71 0.68
1.24 1.30 1.28 1.23 1.17 1.06 0.95 0.87 0.87 0.88 0.85 0.87 0.89 0.90 0.94 0.95 0.96 1.07 1.17 1.04 0.89 0.97 1.05 1.02 0.88 0.77 0.75 0.87 1.08 1.10 1.04 0.98 0.88 0.77 0.73 0.76 0.79 0.84 0.87 0.86 0.80 0.72 0.70 0.70
1.38 1.44 1.32 1.16 1.10 1.00 0.89 0.83 0.79 0.78 0.78 0.86 0.93 0.96 1.10 1.15 1.09 1.08 1.05 1.01 0.98 1.07 1.05 0.98 0.88 0.76 0.69 0.73 0.82 0.93 0.91 0.85 0.78 0.70 0.63 0.63 0.69 0.76 0.77 0.76 0.73 0.69 0.68 0.69
1.38 1.33 1.22 1.04 0.99 0.87 0.73 0.71 0.70 0.69 0.71 0.80 0.94 1.10 1.33 1.35 1.28 1.33 1.16 0.93 0.91 1.04 1.02 0.94 0.90 0.77 0.66 0.62 0.68 0.76 0.78 0.78 0.74 0.66 0.56 0.56 0.59 0.64 0.67 0.63 0.64 0.63 0.59 0.55
1.18 1.08 0.97 0.86 0.88 0.84 0.79 0.76 0.74 0.74 0.77 0.82 0.88 1.05 1.33 1.48 1.30 1.08 1.02 0.99 0.95 0.93 0.89 0.89 0.87 0.77 0.69 0.61 0.62 0.69 0.74 0.76 0.72 0.65 0.57 0.58 0.58 0.59 0.62 0.60 0.57 0.54 0.48 0.48
1.15 0.97 0.83 0.80 0.92 1.02 0.98 0.93 0.92 0.94 0.96 0.97 0.91 0.96 1.11 1.35 1.37 1.07 0.86 0.78 0.82 0.83 0.81 0.86 0.86 0.84 0.70 0.60 0.61 0.70 0.76 0.79 0.79 0.74 0.68 0.68 0.65 0.66 0.66 0.62 0.59 0.56 0.55 0.56
1.11 0.99 0.88 0.84 0.90 1.06 1.13 1.15 1.22 1.23 1.29 1.34 1.26 1.14 1.16 1.22 1.15 1.00 0.85 0.73 0.73 0.79 0.76 0.80 0.82 0.82 0.72 0.64 0.65 0.71 0.76 0.81 0.82 0.79 0.77 0.75 0.70 0.68 0.68 0.65 0.64 0.61 0.59 0.56
1.12 1.03 0.97 0.92 0.92 1.02 1.16 1.28 1.39 1.45 1.56 1.72 1.70 1.41 1.29 1.30 1.21 1.09 0.94 0.84 0.84 0.84 0.81 0.75 0.70 0.71 0.74 0.74 0.71 0.69 0.74 0.81 0.80 0.80 0.80 0.74 0.69 0.66 0.64 0.58 0.55 0.54 0.50 0.46

GEFSNGP_prec_meanprecacc_240.txt.gz
Total_Precipitation_Accumulation
0.12 0.21 0.24 0.24 0.22 0.18 0.15 0.12 0.22 0.26 0.37 0.45 0.48 0.61 0.78 0.92 0.92 0.88 0.72 0.63 0.70 0.70 0.76 0.79 0.80 0.87 0.82 0.80 0.85 0.99 1.17 1.30 1.44 1.44 1.42 1.41 1.47 1.52 1.54 1.63 1.63 1.69 1.74 1.76
0.16 0.19 0.24 0.27 0.25 0.19 0.13 0.12 0.16 0.24 0.38 0.50 0.57 0.67 0.74 0.71 0.65 0.59 0.55 0.45 0.43 0.60 0.69 0.65 0.64 0.67 0.62 0.68 0.81 0.95 1.05 1.16 1.37 1.49 1.52 1.52 1.55 1.64 1.68 1.69 1.69 1.72 1.68 1.73
0.25 0.24 0.25 0.34 0.33 0.24 0.15 0.14 0.20 0.32 0.49 0.65 0.55 0.55 0.62 0.63 0.61 0.57 0.55 0.40 0.34 0.41 0.56 0.55 0.56 0.57 0.67 0.80 0.93 1.05 1.18 1.32 1.51 1.61 1.69 1.70 1.66 1.75 1.72 1.72 1.76 1.73 1.67 1.66
0.31 0.42 0.51 0.37 0.30 0.29 0.29 0.26 0.28 0.40 0.42 0.56 0.56 0.61 0.73 0.73 0.71 0.56 0.49 0.39 0.35 0.36 0.41 0.48 0.55 0.62 0.76 1.04 1.25 1.29 1.43 1.61 1.72 1.83 1.79 1.77 1.76 1.78 1.85 1.92 1.94 1.90 1.84 1.75
0.47 0.60 0.52 0.44 0.32 0.36 0.41 0.54 0.56 0.64 0.61 0.56 0.56 0.66 0.75 0.65 0.57 0.58 0.47 0.43 0.42 0.41 0.48 0.57 0.62 0.66 0.87 1.10 1.34 1.47 1.53 1.66 1.82 1.92 1.97 1.99 2.01 1.96 2.00 2.07 2.02 1.95 1.91 1.95
0.59 0.74 0.73 0.61 0.48 0.47 0.58 1.03 0.86 0.79 0.81 0.69 0.64 0.77 0.83 0.79 0.72 0.66 0.58 0.54 0.53 0.55 0.63 0.77 0.87 0.92 1.06 1.17 1.31 1.48 1.56 1.68 1.86 2.08 2.14 2.17 2.29 2.34 2.27 2.23 2.11 2.13 2.13 2.11
0.74 0.80 0.87 0.74 0.68 0.71 1.11 1.39 1.08 0.91 0.87 0.83 0.92 0.94 0.90 0.80 0.81 0.74 0.63 0.65 0.63 0.65 0.77 0.96 1.10 1.16 1.26 1.39 1.50 1.51 1.59 1.72 1.92 2.09 2.17 2.23 2.37 2.44 2.43 2.40 2.38 2.31 2.24 2.26
0.89 1.07 1.24 0.87 0.83 1.24 1.50 1.25 1.24 1.21 1.13 1.01 0.98 0.94 0.90 0.81 0.79 0.74 0.71 0.75 0.76 0.80 0.95 1.17 1.33 1.29 1.34 1.41 1.45 1.49 1.52 1.63 1.75 1.91 1.95 2.03 2.26 2.36 2.43 2.46 2.41 2.32 2.26 2.14
1.18 1.30 1.20 1.01 1.09 1.26 1.39 1.55 1.46 1.34 1.34 1.15 1.11 1.02 0.92 0.84 0.81 0.78 0.75 0.80 0.83 0.89 1.09 1.33 1.48 1.49 1.55 1.44 1.50 1.53 1.56 1.68 1.81 1.89 1.96 2.07 2.16 2.16 2.22 2.30 2.27 2.17 2.16 2.09
1.36 1.40 1.32 1.19 1.06 0.99 1.12 1.23 1.22 1.21 1.20 1.15 1.12 1.07 0.98 0.87 0.80 0.80 0.80 0.75 0.79 0.87 0.97 1.06 1.26 1.43 1.52 1.56 1.61 1.61 1.64 1.68 1.75 1.87 1.90 1.92 2.03 2.11 2.21 2.31 2.39 2.30 2.19 2.09
1.61 1.52 1.39 1.40 1.29 1.17 1.24 1.30 1.21 1.15 1.12 1.13 1.10 1.05 0.92 0.88 0.86 0.83 0.81 0.76 0.78 0.86 0.88 0.94 1.03 1.15 1.23 1.32 1.44 1.50 1.54 1.58 1.62 1.64 1.73 1.81 1.85 1.93 1.94 2.03 2.03 2.02 1.98 1.94
1.94 1.69 1.53 1.50 1.38 1.27 1.33 1.30 1.35 1.41 1.37 1.16 1.06 1.13 1.06 0.93 0.83 0.81 0.82 0.80 0.83 0.85 0.84 0.87 0.94 1.09 1.20 1.29 1.42 1.53 1.60 1.62 1.54 1.50 1.56 1.60 1.63 1.62 1.62 1.55 1.54 1.49 1.48 1.47
1.57 1.42 1.38 1.36 1.33 1.25 1.27 1.20 1.18 1.25 1.28 1.18 1.11 1.08 1.14 1.05 0.96 0.90 0.83 0.77 0.81 0.86 0.85 0.87 0.91 1.02 1.10 1.19 1.30 1.39 1.49 1.54 1.52 1.48 1.53 1.52 1.53 1.55 1.59 1.52 1.41 1.33 1.28 1.25
1.37 1.31 1.32 1.27 1.21 1.20 1.22 1.16 1.03 1.02 1.10 1.12 1.12 1.16 1.24 1.18 1.08 1.02 0.97 0.88 0.81 0.81 0.80 0.83 0.91 0.94 1.02 1.11 1.18 1.22 1.28 1.35 1.45 1.55 1.58 1.61 1.64 1.67 1.73 1.78 1.72 1.54 1.37 1.26
1.45 1.34 1.23 1.09 1.08 1.11 1.09 1.05 0.97 0.92 1.06 1.19 1.13 1.15 1.20 1.09 1.02 0.97 0.92 0.88 0.86 0.84 0.86 0.88 0.93 0.95 1.02 1.13 1.19 1.20 1.22 1.25 1.26 1.31 1.40 1.47 1.48 1.52 1.59 1.67 1.70 1.59 1.42 1.30
1.51 1.38 1.19 1.05 1.08 1.15 1.15 1.11 1.03 0.91 0.87 1.00 1.08 1.05 1.09 1.02 0.92 0.93 0.94 0.95 1.00 1.01 1.01 1.00 1.05 1.01 1.06 1.14 1.20 1.23 1.18 1.20 1.19 1.17 1.17 1.19 1.22 1.29 1.38 1.47 1.51 1.42 1.31 1.18
1.52 1.45 1.29 1.12 1.06 1.05 1.07 1.09 1.03 0.92 0.81 0.83 0.95 1.00 1.04 1.00 0.91 0.89 0.92 0.95 0.99 1.01 1.02 1.07 1.12 1.13 1.19 1.23 1.23 1.23 1.16 1.13 1.11 1.09 1.08 1.08 1.11 1.17 1.22 1.26 1.28 1.21 1.12 0.96
1.38 1.29 1.18 1.09 1.01 0.98 1.00 0.98 0.97 0.95 0.90 0.85 0.87 0.91 0.95 1.02 1.06 1.02 0.96 0.96 0.96 0.94 0.90 0.91 0.98 1.06 1.18 1.28 1.31 1.27 1.12 1.00 0.94 0.94 0.98 1.02 1.03 1.08 1.13 1.13 1.09 1.03 0.95 0.80
1.22 1.18 1.09 1.04 1.02 0.99 0.96 0.92 0.90 0.91 0.86 0.81 0.86 0.91 0.94 1.01 1.13 1.11 1.03 1.03 1.09 1.10 0.98 0.88 0.95 0.94 1.01 1.18 1.31 1.31 1.15 1.01 0.92 0.88 0.87 0.90 0.92 0.98 1.02 0.99 0.91 0.84 0.78 0.73
1.21 1.24 1.24 1.20 1.13 1.09 1.01 0.92 0.89 0.89 0.86 0.82 0.84 0.87 0.93 0.97 1.09 1.16 1.15 1.05 1.05 1.12 1.10 1.02 0.92 0.84 0.85 0.99 1.23 1.21 1.18 1.10 0.97 0.85 0.86 0.89 0.91 0.94 0.94 0.91 0.85 0.79 0.75 0.72
1.26 1.33 1.31 1.27 1.21 1.11 0.99 0.91 0.90 0.90 0.87 0.89 0.91 0.92 0.98 1.00 0.99 1.12 1.22 1.09 0.96 1.04 1.10 1.06 0.91 0.81 0.79 0.91 1.13 1.17 1.13 1.10 1.01 0.88 0.82 0.82 0.83 0.87 0.90 0.89 0.84 0.76 0.73 0.73
1.42 1.49 1.38 1.22 1.15 1.05 0.93 0.87 0.83 0.83 0.82 0.89 0.95 1.00 1.13 1.19 1.14 1.12 1.08 1.04 1.02 1.12 1.10 1.02 0.92 0.80 0.73 0.77 0.86 0.99 0.97 0.91 0.85 0.76 0.69 0.68 0.73 0.79 0.80 0.80 0.77 0.72 0.70 0.72
1.44 1.40 1.28 1.10 1.03 0.90 0.75 0.74 0.73 0.73 0.74 0.83 0.97 1.14 1.37 1.38 1.30 1.35 1.18 0.95 0.94 1.08 1.05 0.96 0.93 0.81 0.69 0.66 0.72 0.80 0.83 0.83 0.79 0.70 0.60 0.60 0.64 0.68 0.71 0.68 0.67 0.66 0.62 0.57
1.22 1.13 1.03 0.91 0.92 0.87 0.81 0.78 0.76 0.77 0.80 0.85 0.91 1.10 1.38 1.52 1.34 1.12 1.06 1.03 1.00 0.99 0.93 0.93 0.90 0.80 0.73 0.65 0.67 0.76 0.82 0.84 0.77 0.70 0.61 0.62 0.62 0.64 0.67 0.64 0.61 0.58 0.52 0.52
1.17 0.99 0.88 0.88 0.99 1.07 1.02 0.97 0.96 0.98 1.00 1.00 0.95 1.00 1.15 1.39 1.41 1.11 0.92 0.85 0.89 0.89 0.85 0.91 0.91 0.88 0.74 0.63 0.64 0.75 0.83 0.89 0.90 0.82 0.75 0.75 0.72 0.71 0.71 0.67 0.65 0.62 0.62 0.61
1.13 1.01 0.93 0.92 0.99 1.15 1.19 1.21 1.28 1.31 1.36 1.40 1.33 1.21 1.22 1.27 1.19 1.05 0.90 0.78 0.79 0.86 0.82 0.85 0.89 0.90 0.77 0.69 0.69 0.75 0.81 0.87 0.91 0.90 0.87 0.83 0.79 0.76 0.75 0.73 0.72 0.70 0.66 0.62
1.16 1.06 1.01 0.98 0.99 1.12 1.27 1.39 1.50 1.55 1.65 1.80 1.78 1.49 1.37 1.38 1.30 1.19 1.04 0.94 0.96 0.99 0.94 0.88 0.81 0.78 0.79 0.79 0.76 0.74 0.78 0.86 0.86 0.87 0.88 0.83 0.78 0.76 0.74 0.68 0.64 0.62 0.57 0.51

GEFSNGP_prec_meanprecacc_246.txt.gz
Total_Precipitation_Accumulation
0.12 0.22 0.24 0.24 0.22 0.18 0.15 0.12 0.22 0.26 0.37 0.46 0.48 0.61 0.79 0.96 0.96 0.89 0.73 0.65 0.73 0.73 0.77 0.80 0.81 0.89 0.84 0.83 0.88 1.01 1.19 1.31 1.45 1.46 1.44 1.43 1.48 1.52 1.55 1.64 1.64 1.70 1.76 1.78
0.16 0.19 0.24 0.27 0.25 0.19 0.13 0.12 0.16 0.24 0.38 0.50 0.57 0.68 0.76 0.73 0.67 0.61 0.55 0.46 0.44 0.60 0.69 0.65 0.65 0.69 0.64 0.69 0.82 0.97 1.06 1.17 1.37 1.51 1.54 1.54 1.57 1.65 1.70 1.70 1.70 1.74 1.70 1.75
0.25 0.25 0.25 0.34 0.33 0.24 0.15 0.14 0.20 0.32 0.49 0.65 0.56 0.58 0.66 0.64 0.62 0.58 0.56 0.41 0.34 0.42 0.58 0.57 0.57 0.59 0.68 0.81 0.95 1.06 1.20 1.33 1.51 1.62 1.71 1.72 1.68 1.78 1.74 1.74 1.79 1.75 1.68 1.67
0.31 0.43 0.52 0.37 0.30 0.29 0.29 0.26 0.28 0.40 0.42 0.56 0.57 0.63 0.75 0.73 0.72 0.57 0.50 0.41 0.36 0.37 0.42 0.49 0.55 0.63 0.77 1.05 1.26 1.30 1.45 1.63 1.73 1.84 1.81 1.78 1.78 1.80 1.86 1.93 1.96 1.92 1.85 1.77
0.47 0.61 0.52 0.45 0.32 0.36 0.41 0.54 0.56 0.64 0.61 0.56 0.56 0.67 0.76 0.66 0.58 0.59 0.48 0.44 0.43 0.42 0.48 0.58 0.63 0.68 0.89 1.11 1.35 1.48 1.54 1.67 1.85 1.95 1.98 2.00 2.02 1.97 2.02 2.09 2.04 1.96 1.92 1.96
0.59 0.74 0.73 0.61 0.48 0.47 0.58 1.03 0.86 0.79 0.81 0.69 0.65 0.78 0.87 0.81 0.73 0.66 0.59 0.55 0.54 0.56 0.64 0.79 0.89 0.93 1.08 1.19 1.33 1.50 1.58 1.70 1.88 2.10 2.16 2.18 2.31 2.37 2.30 2.25 2.12 2.13 2.13 2.11
0.74 0.80 0.87 0.74 0.68 0.71 1.11 1.39 1.08 0.91 0.87 0.85 0.96 0.97 0.91 0.81 0.81 0.75 0.64 0.66 0.64 0.66 0.78 0.98 1.12 1.18 1.28 1.41 1.51 1.53 1.62 1.75 1.95 2.13 2.22 2.28 2.42 2.49 2.45 2.41 2.39 2.33 2.26 2.29
0.89 1.08 1.24 0.87 0.84 1.24 1.50 1.26 1.25 1.21 1.13 1.02 0.99 0.95 0.90 0.82 0.80 0.75 0.72 0.77 0.77 0.81 0.95 1.18 1.35 1.31 1.36 1.42 1.47 1.52 1.55 1.66 1.79 1.96 2.00 2.09 2.33 2.40 2.47 2.49 2.45 2.36 2.30 2.17
1.20 1.32 1.22 1.02 1.10 1.26 1.39 1.55 1.46 1.34 1.35 1.16 1.11 1.02 0.93 0.85 0.82 0.80 0.76 0.82 0.84 0.90 1.10 1.34 1.49 1.51 1.57 1.46 1.52 1.56 1.59 1.72 1.86 1.94 2.01 2.13 2.21 2.22 2.29 2.36 2.32 2.22 2.20 2.13
1.37 1.41 1.33 1.19 1.06 1.00 1.12 1.24 1.22 1.22 1.21 1.17 1.13 1.07 0.99 0.88 0.81 0.81 0.81 0.76 0.80 0.89 0.98 1.07 1.27 1.45 1.54 1.58 1.63 1.65 1.67 1.72 1.80 1.91 1.93 1.97 2.09 2.17 2.27 2.38 2.45 2.34 2.23 2.13
1.62 1.53 1.40 1.41 1.30 1.18 1.25 1.31 1.22 1.16 1.13 1.13 1.11 1.06 0.92 0.89 0.88 0.85 0.83 0.78 0.80 0.88 0.89 0.94 1.04 1.16 1.25 1.34 1.47 1.53 1.57 1.61 1.66 1.69 1.77 1.85 1.89 1.97 1.99 2.10 2.11 2.09 2.03 2.01
1.96 1.71 1.55 1.52 1.40 1.28 1.35 1.32 1.36 1.42 1.39 1.17 1.06 1.15 1.08 0.95 0.85 0.84 0.85 0.85 0.86 0.87 0.85 0.88 0.94 1.11 1.22 1.31 1.45 1.56 1.63 1.65 1.58 1.54 1.60 1.65 1.68 1.67 1.67 1.63 1.63 1.59 1.60 1.58
1.61 1.45 1.41 1.39 1.36 1.29 1.29 1.22 1.20 1.27 1.31 1.21 1.16 1.14 1.18 1.08 0.99 0.92 0.86 0.79 0.82 0.88 0.87 0.88 0.93 1.04 1.14 1.22 1.32 1.43 1.52 1.58 1.56 1.54 1.58 1.57 1.57 1.59 1.62 1.57 1.48 1.42 1.38 1.35
1.40 1.36 1.36 1.30 1.24 1.24 1.26 1.18 1.06 1.04 1.13 1.17 1.21 1.24 1.33 1.25 1.13 1.06 1.00 0.91 0.83 0.83 0.82 0.85 0.94 0.97 1.05 1.13 1.19 1.24 1.31 1.39 1.50 1.60 1.63 1.65 1.67 1.71 1.76 1.81 1.75 1.57 1.41 1.31
1.47 1.35 1.26 1.12 1.13 1.18 1.15 1.08 1.00 0.95 1.10 1.27 1.26 1.23 1.27 1.18 1.11 1.04 0.97 0.91 0.88 0.87 0.91 0.92 0.97 0.99 1.05 1.14 1.21 1.22 1.25 1.29 1.30 1.36 1.45 1.52 1.52 1.55 1.62 1.70 1.72 1.61 1.45 1.33
1.54 1.40 1.21 1.07 1.11 1.21 1.22 1.17 1.07 0.98 0.94 1.11 1.23 1.18 1.15 1.07 0.98 0.98 0.99 0.99 1.03 1.03 1.05 1.06 1.09 1.04 1.09 1.17 1.23 1.27 1.23 1.25 1.25 1.23 1.22 1.25 1.28 1.34 1.41 1.50 1.54 1.45 1.34 1.22
1.56 1.48 1.32 1.15 1.08 1.08 1.11 1.14 1.09 1.02 0.93 0.95 1.05 1.12 1.12 1.06 0.96 0.94 0.96 0.99 1.03 1.03 1.05 1.10 1.15 1.16 1.23 1.27 1.29 1.29 1.22 1.20 1.17 1.15 1.15 1.16 1.18 1.23 1.26 1.29 1.32 1.26 1.16 1.01
1.40 1.32 1.21 1.12 1.04 1.01 1.04 1.03 1.02 1.02 0.98 0.95 0.96 0.98 1.02 1.08 1.11 1.07 1.00 1.00 1.00 0.98 0.94 0.94 1.02 1.10 1.23 1.34 1.38 1.35 1.20 1.08 1.02 1.01 1.06 1.10 1.11 1.15 1.20 1.19 1.16 1.10 1.01 0.84
1.25 1.21 1.13 1.06 1.04 1.01 1.00 0.98 0.97 0.98 0.93 0.88 0.93 0.99 1.01 1.07 1.18 1.15 1.07 1.09 1.15 1.16 1.04 0.94 1.01 1.00 1.09 1.29 1.43 1.42 1.27 1.12 1.01 0.97 0.98 0.99 1.00 1.06 1.11 1.07 1.00 0.94 0.87 0.82
1.25 1.27 1.28 1.25 1.16 1.12 1.05 0.98 0.96 0.96 0.94 0.91 0.92 0.95 1.02 1.05 1.15 1.22 1.21 1.15 1.15 1.23 1.20 1.13 1.01 0.92 0.93 1.12 1.39 1.35 1.29 1.19 1.06 0.94 0.96 1.01 1.01 1.04 1.06 1.02 0.94 0.89 0.85 0.81
1.30 1.36 1.35 1.33 1.25 1.15 1.03 0.96 0.98 0.99 0.95 0.97 1.00 1.02 1.08 1.08 1.06 1.17 1.28 1.17 1.06 1.16 1.26 1.23 1.03 0.90 0.88 1.03 1.27 1.29 1.23 1.19 1.09 0.97 0.94 0.95 0.95 0.97 0.99 0.96 0.91 0.85 0.82 0.81
1.47 1.53 1.43 1.28 1.21 1.11 1.00 0.95 0.91 0.90 0.89 0.97 1.03 1.08 1.22 1.25 1.19 1.17 1.14 1.11 1.09 1.21 1.22 1.15 1.03 0.91 0.83 0.86 0.95 1.07 1.05 1.00 0.92 0.85 0.78 0.78 0.84 0.90 0.90 0.89 0.87 0.84 0.81 0.81
1.48 1.44 1.34 1.16 1.10 0.97 0.83 0.82 0.81 0.80 0.80 0.90 1.04 1.20 1.42 1.43 1.35 1.40 1.24 1.00 0.99 1.15 1.13 1.03 1.00 0.89 0.80 0.75 0.80 0.88 0.90 0.91 0.86 0.76 0.66 0.66 0.71 0.75 0.78 0.74 0.74 0.75 0.70 0.63
1.27 1.19 1.08 0.95 0.97 0.93 0.88 0.87 0.84 0.84 0.85 0.90 0.96 1.14 1.42 1.57 1.40 1.17 1.11 1.07 1.04 1.02 0.97 0.97 0.95 0.85 0.79 0.73 0.75 0.83 0.89 0.91 0.85 0.78 0.68 0.68 0.68 0.70 0.73 0.69 0.66 0.64 0.58 0.59
1.24 1.06 0.94 0.94 1.04 1.11 1.06 1.03 1.04 1.05 1.06 1.04 0.99 1.04 1.20 1.44 1.46 1.16 0.97 0.88 0.92 0.91 0.87 0.93 0.94 0.92 0.78 0.69 0.72 0.82 0.89 0.95 0.96 0.88 0.81 0.81 0.78 0.78 0.78 0.76 0.76 0.73 0.71 0.70
1.19 1.09 1.01 0.99 1.04 1.18 1.23 1.26 1.34 1.39 1.41 1.45 1.38 1.26 1.27 1.33 1.25 1.10 0.93 0.80 0.81 0.87 0.83 0.86 0.91 0.92 0.80 0.73 0.74 0.80 0.86 0.92 0.96 0.96 0.93 0.90 0.86 0.86 0.86 0.84 0.84 0.81 0.77 0.72
1.21 1.12 1.09 1.04 1.03 1.15 1.30 1.43 1.56 1.62 1.71 1.85 1.84 1.55 1.43 1.44 1.36 1.23 1.07 0.96 0.98 1.02 0.98 0.92 0.85 0.82 0.84 0.88 0.86 0.79 0.83 0.91 0.91 0.93 0.94 0.89 0.83 0.82 0.82 0.78 0.75 0.73 0.68 0.63

GEFSNGP_prec_meanprecacc_252.txt.gz
Total_Precipitation_Accumulation
0.12 0.22 0.24 0.24 0.23 0.19 0.15 0.12 0.22 0.26 0.37 0.46 0.49 0.62 0.79 0.96 0.96 0.89 0.74 0.65 0.73 0.73 0.77 0.80 0.81 0.89 0.84 0.84 0.89 1.02 1.20 1.32 1.46 1.46 1.44 1.43 1.48 1.53 1.56 1.65 1.65 1.71 1.77 1.79
0.16 0.19 0.25 0.28 0.26 0.19 0.14 0.12 0.16 0.24 0.38 0.50 0.58 0.68 0.76 0.73 0.68 0.61 0.56 0.46 0.44 0.61 0.70 0.66 0.65 0.69 0.64 0.70 0.83 0.97 1.07 1.18 1.38 1.51 1.54 1.54 1.58 1.66 1.71 1.71 1.72 1.75 1.72 1.76
0.25 0.25 0.25 0.34 0.33 0.24 0.15 0.14 0.20 0.32 0.49 0.65 0.56 0.59 0.66 0.64 0.62 0.59 0.57 0.41 0.35 0.43 0.58 0.57 0.58 0.59 0.69 0.82 0.95 1.07 1.21 1.35 1.52 1.62 1.71 1.72 1.68 1.78 1.75 1.76 1.80 1.77 1.70 1.68
0.31 0.43 0.52 0.37 0.30 0.29 0.29 0.26 0.28 0.40 0.42 0.56 0.57 0.63 0.75 0.74 0.72 0.57 0.51 0.41 0.36 0.38 0.43 0.49 0.56 0.63 0.78 1.05 1.27 1.31 1.46 1.64 1.74 1.84 1.81 1.79 1.78 1.81 1.88 1.95 1.97 1.93 1.87 1.79
0.47 0.61 0.52 0.45 0.32 0.36 0.41 0.54 0.56 0.64 0.61 0.56 0.56 0.67 0.76 0.66 0.58 0.59 0.49 0.44 0.44 0.43 0.49 0.59 0.63 0.68 0.89 1.11 1.36 1.49 1.55 1.68 1.85 1.95 1.99 2.01 2.03 1.98 2.03 2.11 2.06 1.98 1.94 1.98
0.59 0.74 0.73 0.61 0.48 0.47 0.58 1.03 0.86 0.79 0.81 0.69 0.65 0.78 0.87 0.81 0.73 0.67 0.59 0.55 0.55 0.56 0.65 0.80 0.90 0.94 1.08 1.19 1.34 1.51 1.59 1.71 1.89 2.11 2.17 2.20 2.34 2.41 2.33 2.28 2.14 2.14 2.14 2.13
0.74 0.80 0.87 0.74 0.68 0.71 1.11 1.39 1.08 0.91 0.87 0.85 0.96 0.97 0.91 0.81 0.81 0.75 0.64 0.67 0.65 0.67 0.79 0.99 1.13 1.19 1.28 1.42 1.52 1.54 1.63 1.76 1.95 2.14 2.24 2.31 2.47 2.53 2.49 2.44 2.40 2.34 2.27 2.30
0.89 1.08 1.25 0.87 0.84 1.24 1.50 1.26 1.25 1.21 1.13 1.02 1.00 0.95 0.91 0.82 0.80 0.75 0.72 0.77 0.78 0.83 0.97 1.19 1.36 1.32 1.37 1.44 1.48 1.53 1.55 1.67 1.80 1.97 2.02 2.11 2.36 2.44 2.50 2.52 2.47 2.38 2.31 2.19
1.20 1.32 1.22 1.02 1.10 1.27 1.39 1.55 1.46 1.34 1.35 1.16 1.11 1.03 0.93 0.85 0.82 0.80 0.76 0.82 0.85 0.91 1.11 1.36 1.51 1.53 1.59 1.48 1.54 1.57 1.60 1.73 1.87 1.95 2.02 2.14 2.23 2.25 2.32 2.40 2.36 2.25 2.22 2.15
1.37 1.41 1.33 1.19 1.06 1.00 1.13 1.24 1.22 1.22 1.22 1.17 1.13 1.07 0.99 0.88 0.81 0.81 0.81 0.77 0.81 0.90 0.99 1.10 1.30 1.47 1.56 1.61 1.66 1.66 1.68 1.73 1.81 1.93 1.94 1.98 2.11 2.20 2.30 2.41 2.48 2.37 2.26 2.17
1.62 1.53 1.41 1.41 1.30 1.18 1.26 1.32 1.24 1.17 1.14 1.14 1.11 1.06 0.93 0.90 0.88 0.86 0.84 0.80 0.82 0.90 0.91 0.97 1.07 1.19 1.28 1.38 1.49 1.54 1.57 1.62 1.67 1.70 1.78 1.87 1.92 2.00 2.02 2.12 2.13 2.11 2.06 2.04
1.96 1.71 1.55 1.52 1.40 1.29 1.35 1.33 1.40 1.48 1.41 1.19 1.07 1.15 1.08 0.95 0.86 0.85 0.87 0.87 0.88 0.89 0.86 0.89 0.96 1.12 1.23 1.33 1.46 1.57 1.64 1.66 1.59 1.55 1.61 1.66 1.70 1.69 1.70 1.65 1.66 1.62 1.63 1.63
1.62 1.45 1.41 1.40 1.37 1.29 1.29 1.23 1.23 1.34 1.36 1.24 1.18 1.15 1.20 1.09 1.01 0.94 0.88 0.82 0.84 0.89 0.88 0.90 0.94 1.05 1.14 1.23 1.33 1.43 1.53 1.59 1.58 1.55 1.59 1.58 1.58 1.61 1.64 1.59 1.50 1.44 1.41 1.40
1.41 1.37 1.38 1.32 1.25 1.25 1.27 1.20 1.09 1.10 1.17 1.20 1.24 1.27 1.36 1.28 1.15 1.07 1.02 0.93 0.86 0.85 0.85 0.87 0.95 0.97 1.06 1.14 1.20 1.25 1.32 1.40 1.51 1.61 1.64 1.67 1.69 1.73 1.79 1.84 1.77 1.59 1.44 1.35
1.49 1.37 1.28 1.15 1.16 1.20 1.18 1.12 1.04 1.01 1.15 1.31 1.29 1.25 1.29 1.20 1.13 1.07 0.99 0.94 0.90 0.89 0.93 0.93 0.98 1.00 1.06 1.15 1.22 1.23 1.25 1.29 1.32 1.38 1.46 1.54 1.55 1.58 1.66 1.74 1.76 1.64 1.48 1.36
1.57 1.43 1.25 1.11 1.15 1.25 1.27 1.24 1.14 1.04 1.00 1.16 1.26 1.20 1.17 1.09 1.00 1.01 1.03 1.03 1.06 1.06 1.07 1.07 1.11 1.05 1.10 1.18 1.25 1.28 1.24 1.27 1.27 1.24 1.25 1.28 1.32 1.39 1.47 1.55 1.60 1.52 1.40 1.27
1.59 1.53 1.38 1.19 1.12 1.11 1.15 1.20 1.16 1.08 0.97 0.99 1.08 1.14 1.15 1.09 0.98 0.96 0.99 1.03 1.08 1.08 1.08 1.12 1.17 1.17 1.24 1.29 1.31 1.31 1.25 1.23 1.21 1.19 1.21 1.22 1.27 1.32 1.35 1.38 1.42 1.35 1.23 1.08
1.43 1.36 1.26 1.16 1.06 1.03 1.06 1.06 1.05 1.05 1.01 0.98 0.98 1.01 1.05 1.12 1.14 1.09 1.03 1.03 1.04 1.01 0.97 0.97 1.04 1.12 1.25 1.37 1.41 1.38 1.24 1.13 1.08 1.08 1.15 1.20 1.22 1.29 1.32 1.29 1.24 1.17 1.07 0.91
1.27 1.24 1.16 1.09 1.06 1.03 1.03 1.00 1.00 1.01 0.95 0.90 0.96 1.02 1.06 1.11 1.21 1.19 1.11 1.12 1.18 1.20 1.07 0.97 1.04 1.03 1.11 1.33 1.47 1.47 1.32 1.16 1.05 1.03 1.05 1.05 1.07 1.14 1.19 1.15 1.07 1.01 0.94 0.89
1.27 1.30 1.31 1.26 1.18 1.14 1.08 0.99 0.98 0.99 0.96 0.93 0.95 1.00 1.09 1.10 1.19 1.25 1.25 1.19 1.19 1.27 1.24 1.16 1.03 0.94 0.97 1.17 1.45 1.41 1.33 1.23 1.09 0.98 1.00 1.05 1.06 1.10 1.12 1.10 1.02 0.95 0.92 0.88
1.33 1.39 1.38 1.35 1.28 1.18 1.07 0.98 1.00 1.02 0.98 1.01 1.03 1.06 1.13 1.12 1.09 1.20 1.31 1.21 1.11 1.21 1.30 1.26 1.06 0.93 0.92 1.08 1.34 1.35 1.28 1.22 1.11 1.00 0.97 0.98 1.00 1.03 1.05 1.04 0.99 0.91 0.89 0.88
1.50 1.56 1.46 1.31 1.24 1.15 1.04 0.97 0.94 0.95 0.95 1.01 1.07 1.13 1.27 1.28 1.22 1.20 1.17 1.14 1.13 1.25 1.26 1.20 1.10 0.97 0.87 0.90 1.00 1.11 1.10 1.04 0.95 0.88 0.82 0.83 0.90 0.97 0.98 0.98 0.96 0.92 0.90 0.89
1.51 1.48 1.39 1.21 1.15 1.02 0.88 0.86 0.85 0.86 0.89 0.97 1.10 1.26 1.48 1.48 1.39 1.43 1.27 1.02 1.01 1.17 1.15 1.06 1.05 0.96 0.87 0.81 0.86 0.92 0.95 0.96 0.90 0.79 0.70 0.71 0.76 0.83 0.87 0.83 0.82 0.82 0.77 0.70
1.31 1.24 1.16 1.04 1.04 1.00 0.94 0.92 0.89 0.90 0.91 0.95 1.01 1.19 1.46 1.61 1.44 1.21 1.13 1.09 1.06 1.04 0.99 1.00 0.98 0.91 0.86 0.80 0.81 0.87 0.94 0.96 0.90 0.82 0.73 0.73 0.74 0.77 0.80 0.77 0.75 0.72 0.67 0.67
1.27 1.09 0.99 1.01 1.11 1.19 1.13 1.09 1.09 1.11 1.11 1.08 1.03 1.09 1.24 1.47 1.49 1.19 0.99 0.91 0.94 0.93 0.88 0.95 0.96 0.94 0.80 0.72 0.75 0.86 0.94 0.99 0.99 0.93 0.86 0.86 0.84 0.84 0.85 0.83 0.84 0.82 0.80 0.78
1.22 1.11 1.05 1.03 1.08 1.23 1.28 1.31 1.39 1.43 1.45 1.49 1.43 1.31 1.31 1.36 1.28 1.13 0.96 0.82 0.82 0.89 0.84 0.88 0.92 0.93 0.80 0.74 0.76 0.83 0.90 0.97 1.01 1.02 1.00 0.95 0.93 0.93 0.94 0.92 0.91 0.89 0.85 0.80
1.25 1.15 1.11 1.07 1.07 1.19 1.34 1.48 1.60 1.66 1.75 1.90 1.88 1.58 1.47 1.48 1.40 1.28 1.11 0.99 1.01 1.05 1.00 0.93 0.86 0.83 0.85 0.90 0.88 0.82 0.86 0.96 0.98 1.01 1.06 0.99 0.93 0.90 0.91 0.88 0.83 0.80 0.75 0.68

GEFSNGP_prec_meanprecacc_258.txt.gz
Total_Precipitation_Accumulation
0.12 0.22 0.24 0.24 0.23 0.19 0.15 0.12 0.22 0.26 0.37 0.46 0.49 0.62 0.79 0.96 0.96 0.90 0.74 0.65 0.73 0.73 0.77 0.80 0.81 0.90 0.84 0.84 0.89 1.02 1.20 1.32 1.46 1.47 1.45 1.43 1.49 1.54 1.57 1.66 1.65 1.72 1.78 1.80
0.16 0.19 0.25 0.28 0.26 0.19 0.14 0.12 0.16 0.24 0.38 0.51 0.58 0.68 0.76 0.74 0.68 0.61 0.56 0.46 0.45 0.61 0.70 0.66 0.66 0.70 0.64 0.70 0.83 0.98 1.07 1.18 1.38 1.51 1.54 1.54 1.58 1.67 1.72 1.72 1.72 1.75 1.72 1.76
0.25 0.25 0.25 0.34 0.33 0.24 0.15 0.14 0.20 0.32 0.49 0.65 0.56 0.59 0.66 0.64 0.63 0.59 0.57 0.42 0.36 0.43 0.59 0.58 0.58 0.59 0.69 0.82 0.96 1.07 1.21 1.35 1.52 1.62 1.71 1.73 1.69 1.79 1.76 1.77 1.81 1.78 1.70 1.69
0.32 0.43 0.52 0.37 0.30 0.29 0.29 0.26 0.28 0.40 0.42 0.56 0.57 0.63 0.75 0.74 0.72 0.58 0.51 0.42 0.37 0.38 0.43 0.50 0.56 0.64 0.78 1.05 1.27 1.32 1.46 1.65 1.74 1.85 1.81 1.79 1.78 1.81 1.88 1.96 1.98 1.94 1.88 1.80
0.47 0.61 0.52 0.45 0.32 0.36 0.41 0.54 0.56 0.64 0.61 0.56 0.56 0.67 0.77 0.66 0.59 0.59 0.49 0.45 0.44 0.43 0.50 0.60 0.64 0.68 0.89 1.12 1.37 1.50 1.56 1.69 1.85 1.95 1.99 2.01 2.03 1.98 2.03 2.11 2.07 1.99 1.96 2.00
0.59 0.74 0.73 0.62 0.48 0.47 0.58 1.03 0.86 0.79 0.81 0.69 0.65 0.79 0.87 0.81 0.73 0.67 0.60 0.56 0.55 0.57 0.66 0.81 0.91 0.95 1.08 1.20 1.34 1.52 1.60 1.72 1.90 2.12 2.18 2.21 2.34 2.41 2.33 2.29 2.15 2.16 2.16 2.14
0.74 0.80 0.87 0.74 0.68 0.71 1.11 1.39 1.08 0.91 0.87 0.85 0.96 0.97 0.91 0.81 0.82 0.76 0.64 0.67 0.65 0.68 0.80 1.00 1.14 1.20 1.29 1.43 1.53 1.55 1.64 1.77 1.97 2.16 2.24 2.32 2.47 2.54 2.49 2.44 2.41 2.36 2.28 2.31
0.89 1.08 1.25 0.87 0.84 1.24 1.50 1.26 1.25 1.22 1.13 1.02 1.00 0.95 0.91 0.82 0.80 0.75 0.73 0.78 0.79 0.84 0.99 1.20 1.37 1.34 1.38 1.45 1.49 1.54 1.56 1.68 1.81 1.98 2.03 2.11 2.37 2.45 2.51 2.53 2.48 2.39 2.32 2.20
1.20 1.32 1.22 1.02 1.10 1.27 1.39 1.55 1.46 1.35 1.35 1.16 1.12 1.03 0.94 0.85 0.82 0.80 0.77 0.83 0.86 0.93 1.12 1.36 1.51 1.53 1.60 1.49 1.55 1.59 1.62 1.75 1.89 1.96 2.03 2.14 2.24 2.26 2.33 2.41 2.36 2.25 2.23 2.17
1.37 1.41 1.33 1.19 1.06 1.00 1.13 1.24 1.23 1.22 1.23 1.18 1.15 1.08 0.99 0.88 0.81 0.81 0.82 0.77 0.82 0.91 1.00 1.11 1.30 1.47 1.57 1.63 1.67 1.68 1.70 1.75 1.83 1.94 1.94 1.98 2.11 2.21 2.31 2.42 2.48 2.38 2.27 2.18
1.62 1.53 1.41 1.41 1.30 1.18 1.26 1.32 1.24 1.18 1.15 1.16 1.13 1.07 0.93 0.90 0.88 0.86 0.85 0.80 0.82 0.91 0.92 0.98 1.07 1.20 1.28 1.39 1.51 1.55 1.59 1.64 1.68 1.71 1.79 1.88 1.93 2.01 2.03 2.13 2.14 2.12 2.07 2.05
1.97 1.71 1.55 1.52 1.41 1.29 1.35 1.33 1.40 1.49 1.44 1.21 1.09 1.17 1.09 0.96 0.86 0.86 0.87 0.87 0.88 0.89 0.87 0.90 0.97 1.13 1.24 1.34 1.46 1.58 1.65 1.67 1.60 1.56 1.62 1.67 1.71 1.71 1.71 1.67 1.68 1.64 1.65 1.65
1.63 1.45 1.42 1.40 1.37 1.30 1.30 1.24 1.23 1.35 1.37 1.25 1.19 1.17 1.21 1.11 1.02 0.95 0.88 0.82 0.85 0.90 0.89 0.91 0.95 1.06 1.15 1.24 1.34 1.45 1.55 1.61 1.60 1.57 1.61 1.60 1.60 1.62 1.65 1.60 1.51 1.45 1.43 1.43
1.42 1.37 1.38 1.33 1.26 1.26 1.27 1.20 1.09 1.10 1.17 1.21 1.24 1.27 1.37 1.28 1.16 1.08 1.03 0.94 0.86 0.86 0.86 0.88 0.96 0.98 1.07 1.15 1.22 1.27 1.33 1.42 1.53 1.63 1.66 1.69 1.71 1.75 1.80 1.85 1.78 1.60 1.46 1.38
1.50 1.38 1.29 1.16 1.16 1.21 1.19 1.13 1.05 1.02 1.16 1.32 1.29 1.26 1.31 1.22 1.14 1.08 1.00 0.95 0.91 0.90 0.93 0.94 0.99 1.00 1.07 1.17 1.23 1.25 1.27 1.32 1.34 1.40 1.49 1.56 1.57 1.60 1.68 1.76 1.78 1.66 1.51 1.40
1.59 1.45 1.26 1.12 1.17 1.27 1.29 1.25 1.16 1.05 1.02 1.18 1.28 1.21 1.18 1.11 1.01 1.02 1.04 1.04 1.07 1.07 1.08 1.08 1.12 1.07 1.12 1.20 1.27 1.31 1.27 1.31 1.30 1.27 1.27 1.31 1.35 1.42 1.50 1.59 1.64 1.56 1.45 1.33
1.61 1.55 1.40 1.22 1.15 1.14 1.18 1.22 1.18 1.10 1.00 1.02 1.10 1.15 1.16 1.10 1.00 0.97 1.00 1.04 1.09 1.10 1.10 1.14 1.19 1.20 1.27 1.32 1.35 1.36 1.29 1.26 1.24 1.23 1.24 1.26 1.30 1.36 1.39 1.43 1.48 1.41 1.28 1.13
1.45 1.39 1.29 1.20 1.11 1.08 1.10 1.10 1.09 1.07 1.02 1.00 1.00 1.02 1.06 1.13 1.15 1.10 1.04 1.04 1.05 1.02 0.99 1.00 1.07 1.16 1.30 1.42 1.47 1.43 1.30 1.20 1.13 1.13 1.19 1.24 1.27 1.34 1.37 1.35 1.30 1.22 1.12 0.95
1.31 1.28 1.21 1.13 1.10 1.07 1.07 1.06 1.07 1.05 0.98 0.93 0.98 1.04 1.07 1.12 1.22 1.20 1.12 1.13 1.19 1.21 1.09 1.01 1.09 1.07 1.15 1.37 1.52 1.52 1.37 1.24 1.14 1.10 1.10 1.11 1.13 1.19 1.24 1.20 1.12 1.05 0.99 0.94
1.31 1.33 1.35 1.30 1.20 1.16 1.10 1.04 1.04 1.04 1.01 0.97 0.97 1.01 1.11 1.12 1.21 1.28 1.27 1.21 1.21 1.29 1.27 1.19 1.09 1.00 1.01 1.22 1.52 1.47 1.38 1.27 1.14 1.04 1.05 1.09 1.12 1.16 1.18 1.14 1.06 0.99 0.96 0.93
1.37 1.43 1.41 1.38 1.29 1.20 1.08 1.01 1.05 1.07 1.04 1.06 1.06 1.08 1.16 1.16 1.14 1.24 1.36 1.25 1.14 1.25 1.32 1.29 1.09 0.99 0.98 1.14 1.43 1.42 1.34 1.27 1.15 1.04 1.00 1.02 1.06 1.13 1.14 1.10 1.04 0.95 0.92 0.92
1.55 1.60 1.50 1.34 1.26 1.17 1.06 0.99 0.97 0.99 1.01 1.08 1.11 1.16 1.31 1.32 1.27 1.24 1.20 1.18 1.16 1.27 1.27 1.22 1.12 1.01 0.93 0.95 1.05 1.17 1.14 1.07 1.00 0.92 0.86 0.87 0.94 1.02 1.04 1.03 1.01 0.97 0.96 0.95
1.55 1.51 1.42 1.24 1.17 1.05 0.90 0.88 0.89 0.90 0.95 1.04 1.16 1.31 1.52 1.52 1.43 1.47 1.29 1.04 1.03 1.18 1.16 1.08 1.07 0.99 0.91 0.85 0.90 0.97 0.99 0.98 0.92 0.81 0.73 0.73 0.79 0.86 0.92 0.89 0.88 0.88 0.84 0.79
1.34 1.28 1.20 1.07 1.07 1.03 0.97 0.95 0.93 0.93 0.96 1.01 1.08 1.24 1.49 1.64 1.46 1.23 1.15 1.10 1.06 1.05 1.00 1.01 1.01 0.95 0.90 0.83 0.85 0.92 0.98 1.01 0.95 0.88 0.78 0.77 0.78 0.81 0.86 0.83 0.81 0.79 0.74 0.74
1.31 1.13 1.02 1.04 1.15 1.23 1.17 1.12 1.11 1.14 1.14 1.15 1.13 1.15 1.28 1.51 1.52 1.21 1.01 0.92 0.95 0.94 0.90 0.98 0.99 0.97 0.83 0.74 0.80 0.92 1.00 1.04 1.05 0.99 0.93 0.92 0.88 0.88 0.90 0.89 0.89 0.87 0.85 0.83
1.25 1.14 1.07 1.06 1.12 1.26 1.31 1.34 1.42 1.46 1.48 1.54 1.51 1.38 1.37 1.42 1.33 1.17 0.99 0.85 0.85 0.91 0.87 0.91 0.96 0.96 0.83 0.77 0.80 0.89 0.96 1.02 1.05 1.06 1.03 0.98 0.95 0.96 0.99 0.97 0.96 0.94 0.89 0.84
1.27 1.16 1.12 1.09 1.10 1.23 1.38 1.52 1.65 1.70 1.78 1.92 1.92 1.63 1.51 1.52 1.48 1.35 1.16 1.03 1.04 1.07 1.03 0.97 0.89 0.85 0.87 0.92 0.91 0.85 0.89 0.99 1.01 1.04 1.09 1.02 0.96 0.94 0.94 0.91 0.87 0.85 0.79 0.72

GEFSNGP_prec_meanprecacc_264.txt.gz
Total_Precipitation_Accumulation
0.12 0.22 0.24 0.24 0.23 0.19 0.15 0.12 0.22 0.26 0.39 0.48 0.52 0.63 0.80 0.96 0.96 0.90 0.74 0.66 0.73 0.74 0.78 0.81 0.82 0.90 0.85 0.85 0.90 1.04 1.22 1.33 1.47 1.48 1.46 1.46 1.51 1.55 1.58 1.66 1.66 1.73 1.79 1.81
0.16 0.19 0.25 0.28 0.26 0.19 0.14 0.12 0.16 0.25 0.39 0.52 0.59 0.68 0.77 0.74 0.68 0.61 0.56 0.47 0.45 0.62 0.71 0.67 0.67 0.71 0.67 0.72 0.85 0.99 1.09 1.19 1.39 1.53 1.56 1.57 1.60 1.69 1.73 1.73 1.74 1.77 1.74 1.78
0.26 0.25 0.25 0.34 0.33 0.24 0.15 0.14 0.20 0.33 0.49 0.66 0.56 0.59 0.67 0.65 0.63 0.59 0.58 0.44 0.40 0.49 0.64 0.60 0.59 0.61 0.70 0.83 0.96 1.08 1.22 1.35 1.53 1.64 1.73 1.74 1.70 1.80 1.78 1.79 1.84 1.80 1.73 1.72
0.32 0.44 0.52 0.38 0.30 0.29 0.29 0.26 0.28 0.40 0.42 0.57 0.57 0.63 0.75 0.74 0.73 0.58 0.52 0.45 0.45 0.46 0.49 0.52 0.57 0.64 0.79 1.06 1.28 1.32 1.47 1.65 1.76 1.86 1.82 1.80 1.80 1.82 1.89 1.97 2.00 1.96 1.90 1.84
0.48 0.62 0.53 0.46 0.32 0.36 0.41 0.54 0.56 0.64 0.61 0.56 0.56 0.68 0.77 0.66 0.59 0.60 0.50 0.46 0.49 0.55 0.57 0.63 0.65 0.69 0.90 1.12 1.37 1.51 1.57 1.70 1.87 1.97 2.00 2.02 2.04 2.00 2.05 2.13 2.09 2.01 1.98 2.03
0.60 0.75 0.74 0.62 0.48 0.47 0.59 1.03 0.86 0.79 0.81 0.69 0.65 0.80 0.89 0.82 0.74 0.67 0.60 0.57 0.56 0.61 0.73 0.86 0.92 0.96 1.10 1.21 1.35 1.53 1.61 1.73 1.91 2.14 2.20 2.22 2.36 2.43 2.35 2.31 2.17 2.18 2.18 2.17
0.75 0.81 0.88 0.75 0.68 0.72 1.12 1.40 1.08 0.91 0.87 0.85 0.96 0.98 0.93 0.83 0.83 0.77 0.65 0.67 0.67 0.71 0.85 1.03 1.16 1.22 1.32 1.45 1.55 1.57 1.66 1.79 1.99 2.17 2.26 2.34 2.49 2.56 2.52 2.46 2.43 2.37 2.30 2.33
0.91 1.09 1.26 0.87 0.84 1.24 1.51 1.26 1.25 1.22 1.13 1.02 1.00 0.96 0.92 0.83 0.82 0.77 0.74 0.78 0.80 0.87 1.02 1.22 1.39 1.35 1.41 1.48 1.52 1.59 1.60 1.71 1.84 2.01 2.04 2.13 2.39 2.47 2.52 2.55 2.49 2.41 2.34 2.22
1.21 1.33 1.23 1.02 1.10 1.27 1.39 1.55 1.46 1.35 1.35 1.16 1.12 1.03 0.94 0.86 0.83 0.80 0.77 0.83 0.86 0.93 1.13 1.37 1.53 1.55 1.61 1.51 1.58 1.63 1.65 1.78 1.92 1.99 2.05 2.16 2.26 2.28 2.35 2.43 2.38 2.27 2.25 2.18
1.38 1.42 1.34 1.20 1.07 1.00 1.13 1.24 1.23 1.23 1.23 1.19 1.15 1.09 1.00 0.89 0.82 0.82 0.82 0.78 0.83 0.92 1.01 1.11 1.31 1.48 1.58 1.64 1.69 1.70 1.72 1.77 1.85 1.96 1.97 2.01 2.14 2.23 2.34 2.44 2.51 2.40 2.29 2.20
1.63 1.54 1.42 1.42 1.30 1.18 1.26 1.33 1.24 1.18 1.15 1.16 1.13 1.08 0.94 0.90 0.89 0.86 0.85 0.81 0.83 0.91 0.92 0.99 1.08 1.20 1.29 1.41 1.52 1.57 1.60 1.66 1.71 1.75 1.83 1.92 1.96 2.04 2.06 2.16 2.18 2.16 2.10 2.08
1.98 1.73 1.57 1.54 1.41 1.29 1.36 1.33 1.40 1.49 1.44 1.22 1.09 1.17 1.09 0.97 0.88 0.86 0.88 0.88 0.89 0.90 0.88 0.91 0.98 1.13 1.25 1.36 1.48 1.60 1.67 1.70 1.63 1.58 1.65 1.70 1.74 1.73 1.75 1.70 1.72 1.69 1.70 1.70
1.64 1.46 1.42 1.41 1.38 1.30 1.30 1.24 1.23 1.35 1.37 1.25 1.20 1.17 1.21 1.11 1.03 0.96 0.89 0.83 0.85 0.91 0.89 0.91 0.96 1.06 1.16 1.25 1.35 1.47 1.57 1.64 1.62 1.59 1.64 1.63 1.63 1.65 1.68 1.63 1.55 1.49 1.47 1.47
1.43 1.38 1.39 1.34 1.27 1.27 1.29 1.21 1.10 1.11 1.17 1.21 1.25 1.28 1.38 1.29 1.17 1.10 1.04 0.95 0.87 0.87 0.86 0.89 0.97 1.00 1.08 1.16 1.22 1.28 1.35 1.44 1.55 1.65 1.69 1.72 1.74 1.79 1.84 1.89 1.81 1.63 1.48 1.41
1.51 1.39 1.31 1.17 1.18 1.24 1.23 1.15 1.06 1.03 1.16 1.32 1.30 1.27 1.32 1.23 1.16 1.10 1.02 0.96 0.92 0.91 0.94 0.95 1.00 1.02 1.08 1.17 1.24 1.25 1.28 1.33 1.35 1.41 1.51 1.60 1.60 1.64 1.72 1.80 1.82 1.71 1.54 1.44
1.60 1.46 1.28 1.15 1.19 1.32 1.36 1.31 1.19 1.08 1.04 1.19 1.28 1.21 1.19 1.11 1.02 1.04 1.05 1.05 1.08 1.08 1.10 1.10 1.13 1.08 1.13 1.21 1.28 1.32 1.29 1.32 1.32 1.30 1.31 1.34 1.39 1.46 1.54 1.63 1.68 1.61 1.51 1.39
1.63 1.57 1.43 1.26 1.19 1.20 1.24 1.28 1.22 1.13 1.02 1.03 1.11 1.16 1.17 1.11 1.01 0.99 1.02 1.05 1.11 1.11 1.11 1.15 1.20 1.21 1.29 1.34 1.37 1.37 1.31 1.28 1.28 1.27 1.28 1.30 1.34 1.40 1.43 1.48 1.53 1.47 1.34 1.21
1.48 1.42 1.35 1.26 1.17 1.14 1.14 1.14 1.13 1.11 1.05 1.02 1.02 1.04 1.07 1.14 1.17 1.12 1.06 1.06 1.06 1.04 1.00 1.01 1.08 1.18 1.31 1.44 1.49 1.46 1.33 1.23 1.17 1.17 1.25 1.30 1.33 1.39 1.43 1.41 1.37 1.30 1.20 1.05
1.34 1.32 1.27 1.19 1.17 1.13 1.11 1.09 1.09 1.07 1.00 0.94 1.00 1.07 1.09 1.13 1.24 1.21 1.14 1.15 1.22 1.24 1.11 1.02 1.10 1.08 1.16 1.38 1.54 1.54 1.41 1.28 1.18 1.15 1.17 1.19 1.22 1.28 1.33 1.29 1.21 1.13 1.06 1.01
1.35 1.37 1.39 1.34 1.25 1.20 1.13 1.06 1.07 1.06 1.04 1.01 1.03 1.06 1.14 1.15 1.23 1.30 1.29 1.24 1.24 1.32 1.29 1.21 1.10 1.02 1.02 1.23 1.54 1.49 1.41 1.30 1.17 1.07 1.09 1.13 1.17 1.23 1.25 1.20 1.11 1.05 1.01 0.98
1.43 1.47 1.44 1.40 1.31 1.21 1.10 1.03 1.08 1.11 1.09 1.12 1.12 1.13 1.19 1.19 1.16 1.27 1.39 1.27 1.17 1.27 1.35 1.30 1.11 1.01 1.00 1.17 1.46 1.44 1.36 1.30 1.17 1.07 1.06 1.07 1.11 1.17 1.19 1.16 1.08 0.99 0.96 0.96
1.64 1.66 1.53 1.37 1.29 1.19 1.09 1.03 1.03 1.05 1.06 1.13 1.15 1.20 1.34 1.36 1.32 1.29 1.25 1.22 1.19 1.30 1.30 1.24 1.14 1.03 0.94 0.99 1.11 1.21 1.17 1.10 1.02 0.95 0.92 0.93 1.00 1.06 1.08 1.08 1.05 1.01 1.01 1.01
1.62 1.57 1.47 1.28 1.22 1.09 0.94 0.94 0.95 0.96 1.01 1.08 1.20 1.34 1.56 1.57 1.49 1.53 1.33 1.07 1.05 1.20 1.18 1.09 1.08 1.00 0.92 0.87 0.97 1.04 1.03 1.02 0.96 0.86 0.78 0.80 0.85 0.90 0.96 0.92 0.92 0.93 0.90 0.86
1.40 1.34 1.26 1.12 1.12 1.08 1.02 1.00 0.98 1.00 1.04 1.07 1.12 1.28 1.52 1.67 1.49 1.27 1.18 1.14 1.10 1.08 1.02 1.03 1.02 0.96 0.92 0.85 0.89 0.96 1.01 1.04 1.00 0.94 0.84 0.85 0.86 0.89 0.93 0.89 0.87 0.85 0.81 0.82
1.36 1.19 1.07 1.10 1.21 1.27 1.21 1.15 1.15 1.19 1.20 1.19 1.16 1.18 1.31 1.53 1.54 1.24 1.03 0.96 0.99 0.97 0.92 1.00 1.02 1.00 0.86 0.77 0.82 0.94 1.03 1.08 1.10 1.06 1.00 1.01 0.98 0.98 1.00 0.98 0.98 0.95 0.92 0.89
1.31 1.20 1.13 1.11 1.18 1.30 1.34 1.37 1.45 1.48 1.51 1.57 1.53 1.40 1.38 1.43 1.35 1.20 1.01 0.88 0.89 0.95 0.91 0.97 1.02 1.01 0.87 0.80 0.83 0.92 0.99 1.06 1.10 1.12 1.09 1.05 1.02 1.05 1.07 1.04 1.01 0.99 0.93 0.88
1.32 1.21 1.16 1.12 1.13 1.26 1.42 1.56 1.68 1.73 1.80 1.95 1.95 1.65 1.52 1.54 1.50 1.37 1.19 1.08 1.10 1.12 1.09 1.03 0.94 0.89 0.91 0.96 0.95 0.89 0.93 1.03 1.05 1.08 1.13 1.07 1.01 0.99 1.00 0.96 0.91 0.88 0.81 0.74

GEFSNGP_prec_meanprecacc_270.txt.gz
Total_Precipitation_Accumulation
0.12 0.22 0.24 0.24 0.23 0.19 0.15 0.13 0.23 0.27 0.40 0.49 0.54 0.66 0.83 1.01 0.99 0.93 0.76 0.67 0.75 0.75 0.79 0.82 0.83 0.92 0.87 0.88 0.93 1.07 1.26 1.37 1.50 1.51 1.48 1.48 1.53 1.57 1.59 1.67 1.67 1.74 1.81 1.83
0.16 0.20 0.25 0.28 0.26 0.20 0.14 0.12 0.17 0.26 0.41 0.54 0.61 0.70 0.78 0.78 0.71 0.63 0.58 0.48 0.46 0.64 0.74 0.70 0.70 0.74 0.69 0.75 0.88 1.02 1.12 1.21 1.41 1.56 1.60 1.59 1.62 1.71 1.75 1.74 1.74 1.78 1.75 1.80
0.26 0.25 0.26 0.35 0.34 0.25 0.16 0.14 0.21 0.33 0.51 0.68 0.57 0.60 0.67 0.67 0.67 0.61 0.59 0.46 0.41 0.50 0.67 0.67 0.68 0.68 0.75 0.87 1.00 1.10 1.25 1.37 1.55 1.66 1.76 1.77 1.73 1.83 1.80 1.80 1.85 1.81 1.74 1.73
0.33 0.44 0.52 0.38 0.31 0.30 0.29 0.27 0.28 0.40 0.43 0.58 0.58 0.64 0.76 0.75 0.75 0.59 0.53 0.46 0.46 0.47 0.50 0.56 0.63 0.68 0.82 1.10 1.35 1.39 1.52 1.69 1.78 1.87 1.84 1.82 1.83 1.85 1.92 2.01 2.04 2.00 1.93 1.86
0.48 0.62 0.53 0.46 0.33 0.36 0.41 0.55 0.56 0.64 0.62 0.57 0.57 0.69 0.78 0.67 0.60 0.61 0.51 0.47 0.50 0.55 0.58 0.66 0.72 0.75 0.94 1.18 1.47 1.63 1.65 1.74 1.90 1.99 2.03 2.05 2.08 2.04 2.10 2.21 2.17 2.07 2.03 2.06
0.61 0.76 0.75 0.62 0.48 0.47 0.59 1.04 0.87 0.80 0.82 0.71 0.67 0.82 0.91 0.83 0.75 0.69 0.63 0.59 0.61 0.64 0.76 0.93 1.00 1.02 1.14 1.26 1.40 1.58 1.65 1.76 1.94 2.18 2.23 2.26 2.40 2.47 2.39 2.35 2.21 2.22 2.22 2.20
0.76 0.83 0.90 0.76 0.69 0.72 1.13 1.41 1.09 0.92 0.89 0.88 0.99 1.01 0.95 0.84 0.84 0.78 0.68 0.70 0.69 0.72 0.88 1.10 1.23 1.26 1.36 1.49 1.58 1.59 1.68 1.81 2.02 2.21 2.30 2.37 2.52 2.59 2.54 2.49 2.46 2.40 2.34 2.38
0.93 1.11 1.27 0.88 0.84 1.25 1.52 1.27 1.26 1.25 1.17 1.04 1.02 0.98 0.94 0.85 0.83 0.77 0.74 0.81 0.84 0.89 1.03 1.23 1.40 1.37 1.43 1.50 1.55 1.61 1.62 1.73 1.87 2.03 2.07 2.16 2.41 2.49 2.55 2.58 2.52 2.43 2.37 2.25
1.24 1.35 1.24 1.03 1.10 1.27 1.41 1.57 1.48 1.37 1.37 1.18 1.13 1.05 0.95 0.87 0.83 0.81 0.78 0.84 0.91 0.97 1.14 1.37 1.53 1.55 1.62 1.52 1.60 1.64 1.67 1.80 1.94 2.01 2.07 2.17 2.27 2.30 2.37 2.45 2.40 2.30 2.31 2.25
1.41 1.45 1.36 1.22 1.08 1.01 1.15 1.26 1.25 1.24 1.24 1.19 1.15 1.09 1.00 0.90 0.82 0.82 0.82 0.78 0.84 0.95 1.02 1.11 1.31 1.49 1.59 1.66 1.71 1.73 1.74 1.78 1.87 1.98 1.98 2.03 2.16 2.25 2.35 2.45 2.52 2.42 2.31 2.22
1.68 1.58 1.45 1.44 1.32 1.20 1.27 1.34 1.26 1.19 1.16 1.16 1.14 1.08 0.94 0.91 0.89 0.87 0.86 0.81 0.83 0.92 0.94 1.00 1.09 1.22 1.31 1.44 1.57 1.63 1.68 1.72 1.73 1.76 1.85 1.94 1.98 2.06 2.06 2.16 2.20 2.19 2.13 2.10
2.01 1.76 1.61 1.56 1.42 1.30 1.36 1.34 1.41 1.49 1.44 1.22 1.10 1.17 1.10 0.97 0.88 0.87 0.88 0.88 0.90 0.91 0.89 0.93 0.99 1.15 1.26 1.37 1.52 1.64 1.71 1.74 1.66 1.61 1.68 1.73 1.78 1.76 1.76 1.71 1.73 1.71 1.72 1.73
1.65 1.47 1.44 1.42 1.39 1.31 1.30 1.24 1.24 1.36 1.38 1.25 1.20 1.17 1.21 1.12 1.04 0.97 0.90 0.84 0.86 0.92 0.90 0.93 0.97 1.08 1.18 1.28 1.40 1.52 1.61 1.67 1.66 1.63 1.67 1.68 1.69 1.68 1.71 1.65 1.57 1.52 1.49 1.49
1.45 1.40 1.41 1.35 1.29 1.29 1.30 1.22 1.10 1.12 1.18 1.21 1.25 1.28 1.38 1.30 1.18 1.11 1.05 0.96 0.88 0.88 0.88 0.90 0.99 1.01 1.10 1.18 1.25 1.32 1.41 1.48 1.59 1.69 1.73 1.76 1.77 1.81 1.87 1.91 1.83 1.65 1.50 1.42
1.54 1.42 1.33 1.20 1.20 1.26 1.24 1.17 1.10 1.06 1.18 1.34 1.30 1.27 1.32 1.24 1.17 1.11 1.04 0.97 0.94 0.92 0.96 0.97 1.01 1.04 1.11 1.20 1.27 1.29 1.32 1.37 1.38 1.44 1.54 1.63 1.62 1.65 1.73 1.81 1.83 1.72 1.56 1.45
1.65 1.51 1.32 1.18 1.23 1.35 1.39 1.33 1.23 1.12 1.07 1.21 1.30 1.23 1.20 1.13 1.03 1.05 1.07 1.07 1.10 1.10 1.11 1.11 1.15 1.10 1.16 1.24 1.30 1.34 1.31 1.34 1.34 1.32 1.32 1.36 1.40 1.47 1.55 1.64 1.69 1.62 1.52 1.41
1.69 1.64 1.48 1.31 1.24 1.25 1.29 1.32 1.25 1.18 1.08 1.07 1.15 1.18 1.19 1.14 1.04 1.02 1.05 1.07 1.13 1.14 1.14 1.18 1.24 1.24 1.31 1.36 1.38 1.39 1.32 1.29 1.29 1.28 1.30 1.31 1.35 1.41 1.45 1.50 1.55 1.49 1.37 1.23
1.54 1.48 1.39 1.29 1.21 1.17 1.18 1.17 1.16 1.16 1.10 1.06 1.07 1.09 1.11 1.18 1.21 1.15 1.08 1.08 1.09 1.06 1.03 1.04 1.12 1.20 1.33 1.45 1.50 1.48 1.35 1.25 1.18 1.18 1.25 1.31 1.34 1.41 1.44 1.43 1.39 1.33 1.23 1.08
1.38 1.35 1.30 1.21 1.19 1.17 1.16 1.13 1.13 1.12 1.07 1.00 1.05 1.14 1.16 1.18 1.29 1.26 1.18 1.19 1.25 1.27 1.14 1.04 1.11 1.09 1.17 1.39 1.55 1.56 1.43 1.30 1.20 1.17 1.18 1.21 1.23 1.29 1.34 1.31 1.23 1.15 1.07 1.03
1.39 1.40 1.41 1.37 1.29 1.26 1.20 1.12 1.12 1.11 1.10 1.08 1.08 1.13 1.21 1.20 1.28 1.36 1.35 1.27 1.26 1.34 1.32 1.23 1.12 1.03 1.03 1.24 1.55 1.50 1.42 1.32 1.19 1.09 1.11 1.15 1.18 1.24 1.26 1.22 1.13 1.07 1.03 0.99
1.48 1.53 1.50 1.46 1.38 1.27 1.16 1.09 1.13 1.17 1.14 1.17 1.17 1.18 1.24 1.23 1.20 1.31 1.43 1.30 1.19 1.30 1.37 1.33 1.13 1.03 1.02 1.19 1.48 1.47 1.38 1.32 1.19 1.08 1.07 1.09 1.12 1.20 1.22 1.19 1.12 1.03 0.99 0.99
1.72 1.74 1.60 1.44 1.37 1.25 1.14 1.08 1.08 1.10 1.13 1.19 1.21 1.24 1.37 1.38 1.35 1.32 1.27 1.25 1.21 1.32 1.33 1.28 1.18 1.08 1.00 1.06 1.17 1.26 1.20 1.12 1.04 0.97 0.94 0.97 1.04 1.11 1.14 1.15 1.12 1.07 1.06 1.06
1.71 1.65 1.55 1.37 1.31 1.16 1.00 0.99 1.00 1.03 1.08 1.17 1.27 1.38 1.59 1.60 1.51 1.55 1.35 1.09 1.08 1.22 1.20 1.13 1.13 1.06 0.98 0.93 1.02 1.10 1.07 1.04 0.98 0.88 0.81 0.84 0.92 0.98 1.04 1.01 1.01 1.02 0.98 0.93
1.48 1.40 1.32 1.21 1.22 1.16 1.09 1.06 1.05 1.08 1.11 1.13 1.19 1.32 1.55 1.70 1.52 1.28 1.19 1.16 1.12 1.10 1.04 1.05 1.05 1.02 0.98 0.91 0.96 1.04 1.09 1.10 1.06 1.00 0.90 0.91 0.92 0.95 0.99 0.96 0.93 0.91 0.87 0.89
1.43 1.25 1.13 1.18 1.30 1.36 1.29 1.23 1.22 1.26 1.26 1.23 1.22 1.26 1.37 1.59 1.60 1.28 1.07 0.99 1.03 1.00 0.95 1.03 1.06 1.05 0.91 0.83 0.88 1.01 1.10 1.14 1.16 1.11 1.06 1.08 1.06 1.05 1.05 1.02 1.03 1.01 0.98 0.96
1.37 1.25 1.19 1.20 1.26 1.37 1.40 1.43 1.50 1.53 1.55 1.60 1.56 1.45 1.47 1.52 1.45 1.28 1.07 0.94 0.94 0.99 0.94 1.00 1.06 1.07 0.92 0.86 0.88 0.97 1.05 1.12 1.17 1.18 1.16 1.12 1.09 1.11 1.13 1.10 1.08 1.06 0.99 0.93
1.37 1.25 1.21 1.20 1.23 1.34 1.47 1.61 1.72 1.77 1.83 1.98 1.97 1.68 1.58 1.62 1.57 1.45 1.25 1.12 1.13 1.15 1.13 1.07 0.99 0.95 0.97 1.01 1.00 0.94 0.99 1.09 1.10 1.13 1.18 1.12 1.07 1.05 1.06 1.02 0.97 0.94 0.86 0.78

GEFSNGP_prec_meanprecacc_276.txt.gz
Total_Precipitation_Accumulation
0.12 0.22 0.25 0.25 0.23 0.19 0.15 0.13 0.23 0.27 0.40 0.50 0.54 0.67 0.83 1.01 0.99 0.93 0.76 0.67 0.75 0.75 0.80 0.83 0.84 0.93 0.88 0.89 0.95 1.10 1.29 1.39 1.51 1.53 1.51 1.51 1.57 1.60 1.61 1.69 1.68 1.76 1.82 1.84
0.16 0.20 0.25 0.28 0.27 0.20 0.14 0.12 0.17 0.26 0.41 0.54 0.61 0.70 0.78 0.78 0.72 0.64 0.58 0.48 0.47 0.64 0.74 0.71 0.71 0.75 0.70 0.75 0.89 1.04 1.14 1.24 1.45 1.58 1.62 1.62 1.66 1.75 1.78 1.76 1.77 1.80 1.77 1.81
0.26 0.25 0.26 0.35 0.34 0.25 0.16 0.15 0.21 0.33 0.51 0.68 0.57 0.60 0.67 0.67 0.67 0.61 0.60 0.46 0.42 0.51 0.67 0.68 0.69 0.68 0.76 0.88 1.01 1.12 1.26 1.40 1.57 1.68 1.78 1.79 1.76 1.87 1.83 1.83 1.88 1.84 1.78 1.78
0.33 0.44 0.53 0.38 0.31 0.30 0.29 0.27 0.28 0.40 0.43 0.58 0.58 0.64 0.76 0.76 0.75 0.60 0.54 0.47 0.46 0.47 0.50 0.56 0.63 0.68 0.82 1.11 1.35 1.41 1.55 1.73 1.82 1.90 1.86 1.84 1.85 1.88 1.96 2.04 2.07 2.05 2.00 1.91
0.49 0.63 0.54 0.46 0.33 0.36 0.41 0.55 0.56 0.64 0.62 0.57 0.57 0.69 0.79 0.67 0.61 0.61 0.51 0.48 0.51 0.56 0.58 0.67 0.73 0.75 0.95 1.18 1.48 1.65 1.70 1.80 1.93 2.02 2.05 2.07 2.09 2.06 2.13 2.25 2.20 2.12 2.07 2.08
0.62 0.76 0.75 0.63 0.48 0.48 0.59 1.04 0.87 0.80 0.82 0.71 0.68 0.82 0.91 0.83 0.75 0.70 0.63 0.60 0.61 0.64 0.76 0.94 1.01 1.02 1.15 1.27 1.42 1.60 1.67 1.78 1.96 2.19 2.24 2.26 2.42 2.49 2.43 2.38 2.24 2.25 2.24 2.22
0.77 0.84 0.90 0.76 0.69 0.72 1.13 1.42 1.10 0.93 0.90 0.89 1.00 1.03 0.96 0.85 0.85 0.78 0.68 0.70 0.69 0.73 0.88 1.11 1.24 1.27 1.37 1.51 1.60 1.61 1.69 1.82 2.03 2.22 2.31 2.38 2.54 2.61 2.56 2.51 2.46 2.41 2.35 2.40
0.93 1.11 1.27 0.89 0.85 1.26 1.53 1.28 1.28 1.27 1.19 1.07 1.05 1.00 0.96 0.86 0.84 0.79 0.75 0.81 0.84 0.89 1.04 1.24 1.41 1.38 1.44 1.52 1.57 1.62 1.63 1.74 1.88 2.06 2.09 2.17 2.43 2.52 2.57 2.59 2.53 2.44 2.38 2.27
1.24 1.36 1.24 1.04 1.11 1.28 1.42 1.57 1.48 1.38 1.39 1.20 1.16 1.07 0.97 0.89 0.85 0.82 0.78 0.85 0.91 0.98 1.14 1.37 1.53 1.56 1.63 1.53 1.61 1.66 1.68 1.82 1.97 2.05 2.09 2.20 2.30 2.33 2.40 2.46 2.41 2.30 2.33 2.28
1.41 1.45 1.37 1.22 1.08 1.01 1.15 1.27 1.25 1.25 1.25 1.21 1.18 1.12 1.02 0.91 0.83 0.83 0.83 0.79 0.84 0.95 1.02 1.12 1.32 1.49 1.60 1.67 1.72 1.74 1.76 1.82 1.91 2.03 2.04 2.08 2.20 2.29 2.38 2.47 2.54 2.44 2.32 2.23
1.68 1.59 1.46 1.45 1.32 1.21 1.28 1.34 1.26 1.20 1.17 1.18 1.15 1.10 0.96 0.93 0.91 0.88 0.86 0.82 0.84 0.92 0.94 1.00 1.10 1.22 1.32 1.45 1.58 1.64 1.70 1.76 1.78 1.82 1.92 2.01 2.03 2.09 2.08 2.17 2.21 2.20 2.14 2.11
2.02 1.77 1.61 1.57 1.43 1.31 1.37 1.34 1.42 1.50 1.45 1.24 1.13 1.20 1.12 0.99 0.90 0.88 0.89 0.89 0.90 0.91 0.90 0.93 1.00 1.16 1.27 1.38 1.53 1.65 1.72 1.75 1.68 1.64 1.70 1.76 1.80 1.77 1.77 1.72 1.74 1.72 1.73 1.74
1.66 1.48 1.44 1.43 1.40 1.32 1.31 1.25 1.25 1.37 1.39 1.27 1.23 1.22 1.26 1.15 1.06 0.99 0.91 0.84 0.87 0.92 0.91 0.93 0.98 1.10 1.19 1.29 1.41 1.53 1.62 1.69 1.68 1.65 1.68 1.69 1.70 1.69 1.71 1.66 1.58 1.52 1.50 1.50
1.46 1.41 1.42 1.36 1.30 1.30 1.31 1.23 1.12 1.14 1.20 1.23 1.27 1.31 1.43 1.35 1.21 1.13 1.07 0.97 0.89 0.89 0.88 0.91 1.00 1.03 1.12 1.19 1.26 1.34 1.43 1.50 1.61 1.71 1.74 1.77 1.79 1.82 1.88 1.92 1.84 1.66 1.51 1.43
1.56 1.44 1.35 1.22 1.22 1.28 1.26 1.19 1.12 1.09 1.20 1.36 1.33 1.30 1.35 1.27 1.20 1.13 1.06 0.99 0.96 0.94 0.97 0.98 1.02 1.04 1.12 1.21 1.28 1.31 1.35 1.39 1.40 1.46 1.56 1.65 1.64 1.66 1.74 1.82 1.84 1.73 1.57 1.46
1.67 1.53 1.34 1.21 1.26 1.38 1.42 1.37 1.27 1.16 1.10 1.24 1.34 1.26 1.23 1.16 1.06 1.08 1.10 1.09 1.13 1.13 1.13 1.13 1.16 1.11 1.17 1.25 1.32 1.36 1.33 1.36 1.36 1.34 1.34 1.38 1.42 1.48 1.56 1.65 1.69 1.63 1.53 1.42
1.71 1.67 1.50 1.33 1.26 1.29 1.34 1.36 1.30 1.22 1.12 1.13 1.20 1.23 1.23 1.17 1.07 1.05 1.08 1.10 1.15 1.16 1.16 1.20 1.26 1.27 1.33 1.37 1.40 1.41 1.34 1.31 1.31 1.30 1.32 1.33 1.37 1.43 1.46 1.51 1.56 1.49 1.37 1.24
1.57 1.51 1.41 1.31 1.21 1.18 1.19 1.19 1.18 1.17 1.13 1.13 1.15 1.16 1.18 1.23 1.24 1.18 1.11 1.11 1.12 1.09 1.05 1.06 1.15 1.23 1.35 1.48 1.53 1.50 1.37 1.27 1.20 1.20 1.27 1.33 1.36 1.43 1.46 1.44 1.40 1.34 1.25 1.10
1.42 1.38 1.32 1.23 1.20 1.18 1.17 1.14 1.14 1.14 1.10 1.06 1.14 1.24 1.25 1.24 1.32 1.29 1.21 1.23 1.29 1.30 1.16 1.06 1.14 1.12 1.20 1.42 1.58 1.59 1.46 1.33 1.23 1.20 1.21 1.23 1.25 1.31 1.35 1.32 1.24 1.16 1.09 1.04
1.43 1.43 1.43 1.39 1.30 1.27 1.22 1.13 1.13 1.13 1.13 1.13 1.15 1.22 1.30 1.27 1.33 1.39 1.38 1.32 1.32 1.39 1.37 1.27 1.15 1.06 1.06 1.27 1.58 1.53 1.46 1.35 1.22 1.12 1.13 1.17 1.20 1.26 1.27 1.23 1.15 1.09 1.05 1.02
1.52 1.57 1.53 1.48 1.40 1.29 1.19 1.11 1.15 1.19 1.18 1.21 1.21 1.23 1.30 1.28 1.25 1.35 1.47 1.34 1.23 1.33 1.41 1.37 1.17 1.05 1.04 1.22 1.52 1.51 1.42 1.35 1.23 1.11 1.09 1.11 1.14 1.21 1.23 1.20 1.14 1.05 1.03 1.03
1.75 1.76 1.63 1.46 1.39 1.28 1.18 1.13 1.12 1.13 1.17 1.24 1.24 1.27 1.41 1.43 1.38 1.34 1.30 1.27 1.23 1.35 1.36 1.31 1.21 1.12 1.04 1.10 1.21 1.30 1.23 1.15 1.07 0.99 0.96 0.99 1.06 1.12 1.16 1.17 1.14 1.10 1.10 1.11
1.73 1.67 1.57 1.40 1.34 1.19 1.05 1.03 1.04 1.06 1.12 1.23 1.34 1.43 1.63 1.64 1.55 1.58 1.37 1.11 1.09 1.24 1.23 1.15 1.16 1.10 1.02 0.97 1.06 1.13 1.10 1.07 1.00 0.90 0.82 0.85 0.93 0.99 1.06 1.04 1.04 1.05 1.02 0.98
1.51 1.43 1.35 1.24 1.25 1.20 1.13 1.10 1.08 1.12 1.14 1.17 1.26 1.40 1.61 1.75 1.55 1.30 1.21 1.18 1.14 1.13 1.07 1.08 1.09 1.07 1.03 0.95 0.98 1.06 1.11 1.13 1.09 1.03 0.93 0.94 0.95 0.98 1.02 0.99 0.96 0.95 0.92 0.93
1.46 1.27 1.17 1.22 1.34 1.40 1.33 1.26 1.25 1.30 1.30 1.27 1.25 1.31 1.43 1.65 1.65 1.30 1.08 1.01 1.06 1.04 0.98 1.06 1.10 1.10 0.96 0.87 0.91 1.03 1.12 1.17 1.19 1.14 1.10 1.13 1.10 1.08 1.08 1.05 1.05 1.04 1.01 0.99
1.42 1.29 1.24 1.26 1.32 1.41 1.45 1.47 1.53 1.57 1.59 1.63 1.59 1.49 1.51 1.59 1.52 1.32 1.10 0.96 0.96 1.02 0.97 1.04 1.10 1.10 0.96 0.90 0.92 1.00 1.07 1.14 1.19 1.21 1.20 1.16 1.14 1.16 1.18 1.15 1.13 1.09 1.02 0.95
1.43 1.31 1.27 1.27 1.30 1.39 1.53 1.67 1.77 1.81 1.87 2.01 1.99 1.71 1.62 1.67 1.64 1.50 1.28 1.14 1.16 1.19 1.16 1.11 1.04 1.00 1.02 1.06 1.04 0.98 1.01 1.11 1.12 1.15 1.21 1.17 1.13 1.11 1.11 1.08 1.03 0.98 0.90 0.82

GEFSNGP_prec_meanprecacc_282.txt.gz
Total_Precipitation_Accumulation
0.13 0.22 0.25 0.25 0.23 0.19 0.15 0.13 0.23 0.27 0.40 0.50 0.54 0.67 0.83 1.01 0.99 0.93 0.76 0.67 0.75 0.76 0.80 0.83 0.85 0.93 0.88 0.90 0.95 1.10 1.29 1.40 1.52 1.54 1.52 1.52 1.58 1.61 1.63 1.72 1.70 1.77 1.84 1.86
0.17 0.20 0.25 0.28 0.27 0.20 0.14 0.12 0.17 0.26 0.41 0.54 0.61 0.70 0.78 0.78 0.72 0.64 0.58 0.48 0.47 0.64 0.74 0.71 0.71 0.75 0.70 0.75 0.89 1.04 1.14 1.25 1.46 1.60 1.63 1.62 1.66 1.75 1.79 1.78 1.79 1.82 1.78 1.83
0.27 0.26 0.26 0.35 0.34 0.25 0.16 0.15 0.21 0.33 0.51 0.68 0.57 0.60 0.68 0.67 0.67 0.61 0.60 0.46 0.42 0.51 0.68 0.68 0.69 0.68 0.76 0.89 1.01 1.12 1.27 1.40 1.58 1.69 1.78 1.79 1.76 1.87 1.83 1.84 1.90 1.86 1.79 1.79
0.34 0.45 0.53 0.38 0.31 0.30 0.29 0.27 0.28 0.40 0.43 0.58 0.58 0.64 0.77 0.76 0.76 0.60 0.54 0.47 0.47 0.48 0.51 0.57 0.63 0.69 0.83 1.11 1.35 1.41 1.55 1.73 1.82 1.91 1.86 1.84 1.86 1.89 1.97 2.05 2.09 2.06 2.01 1.92
0.50 0.64 0.55 0.47 0.33 0.37 0.42 0.55 0.56 0.64 0.62 0.57 0.58 0.70 0.79 0.68 0.62 0.63 0.53 0.49 0.52 0.57 0.59 0.67 0.73 0.76 0.95 1.18 1.48 1.65 1.70 1.80 1.94 2.02 2.05 2.07 2.10 2.07 2.14 2.26 2.22 2.13 2.08 2.09
0.63 0.77 0.76 0.63 0.48 0.48 0.60 1.05 0.87 0.80 0.82 0.72 0.68 0.83 0.92 0.85 0.77 0.72 0.65 0.61 0.62 0.65 0.77 0.94 1.01 1.02 1.15 1.27 1.42 1.61 1.68 1.80 1.97 2.20 2.25 2.28 2.42 2.50 2.44 2.39 2.24 2.26 2.25 2.22
0.78 0.84 0.91 0.76 0.69 0.72 1.14 1.42 1.10 0.94 0.91 0.90 1.02 1.05 0.99 0.87 0.87 0.80 0.70 0.72 0.70 0.73 0.88 1.11 1.24 1.28 1.38 1.51 1.61 1.62 1.70 1.85 2.05 2.23 2.32 2.39 2.55 2.62 2.57 2.52 2.48 2.43 2.35 2.41
0.94 1.12 1.29 0.89 0.85 1.27 1.54 1.28 1.28 1.27 1.20 1.08 1.06 1.03 0.99 0.89 0.86 0.81 0.77 0.82 0.85 0.90 1.04 1.25 1.42 1.39 1.45 1.54 1.58 1.63 1.64 1.75 1.89 2.06 2.09 2.18 2.44 2.53 2.60 2.61 2.55 2.45 2.40 2.28
1.25 1.36 1.25 1.04 1.11 1.29 1.42 1.58 1.49 1.38 1.39 1.20 1.17 1.08 0.98 0.90 0.85 0.82 0.79 0.85 0.92 0.98 1.14 1.38 1.54 1.57 1.64 1.54 1.62 1.67 1.69 1.82 1.97 2.05 2.10 2.20 2.30 2.34 2.42 2.48 2.42 2.32 2.34 2.29
1.41 1.45 1.37 1.23 1.08 1.02 1.15 1.27 1.26 1.25 1.25 1.22 1.19 1.12 1.02 0.91 0.84 0.83 0.83 0.79 0.85 0.96 1.03 1.13 1.33 1.50 1.61 1.67 1.73 1.75 1.76 1.82 1.91 2.03 2.04 2.08 2.21 2.30 2.39 2.48 2.55 2.45 2.34 2.24
1.69 1.59 1.46 1.46 1.33 1.21 1.28 1.36 1.28 1.21 1.17 1.18 1.16 1.10 0.96 0.93 0.91 0.89 0.87 0.83 0.85 0.93 0.96 1.01 1.10 1.23 1.32 1.45 1.58 1.64 1.70 1.76 1.78 1.83 1.92 2.01 2.04 2.11 2.10 2.20 2.24 2.22 2.16 2.13
2.03 1.77 1.62 1.58 1.44 1.31 1.37 1.35 1.42 1.51 1.45 1.24 1.13 1.21 1.12 1.00 0.91 0.89 0.90 0.90 0.91 0.93 0.91 0.94 1.00 1.16 1.27 1.38 1.53 1.65 1.72 1.75 1.68 1.64 1.71 1.76 1.81 1.78 1.79 1.75 1.78 1.76 1.77 1.77
1.66 1.48 1.45 1.44 1.40 1.33 1.32 1.25 1.25 1.37 1.39 1.27 1.23 1.22 1.26 1.16 1.07 1.00 0.92 0.85 0.88 0.94 0.93 0.95 0.99 1.10 1.19 1.29 1.41 1.54 1.63 1.69 1.69 1.65 1.69 1.69 1.71 1.70 1.73 1.69 1.61 1.55 1.53 1.53
1.46 1.41 1.42 1.37 1.30 1.30 1.32 1.24 1.13 1.14 1.21 1.23 1.27 1.32 1.43 1.35 1.23 1.14 1.08 0.99 0.91 0.90 0.90 0.93 1.01 1.03 1.12 1.20 1.27 1.34 1.43 1.51 1.61 1.71 1.75 1.78 1.80 1.84 1.90 1.95 1.87 1.68 1.54 1.47
1.56 1.44 1.35 1.22 1.22 1.29 1.27 1.20 1.13 1.10 1.21 1.36 1.33 1.30 1.35 1.28 1.23 1.17 1.09 1.02 0.98 0.97 0.99 1.00 1.04 1.06 1.12 1.22 1.29 1.32 1.36 1.39 1.40 1.46 1.57 1.66 1.66 1.69 1.76 1.84 1.87 1.76 1.60 1.50
1.67 1.54 1.35 1.21 1.26 1.39 1.43 1.38 1.28 1.17 1.11 1.25 1.34 1.27 1.23 1.16 1.07 1.11 1.14 1.12 1.16 1.16 1.17 1.16 1.19 1.14 1.19 1.26 1.33 1.37 1.34 1.37 1.37 1.35 1.36 1.40 1.44 1.50 1.58 1.68 1.73 1.66 1.55 1.43
1.72 1.68 1.52 1.35 1.28 1.30 1.35 1.36 1.30 1.23 1.13 1.14 1.21 1.24 1.23 1.17 1.08 1.06 1.10 1.13 1.18 1.19 1.20 1.26 1.30 1.29 1.36 1.40 1.42 1.42 1.35 1.33 1.33 1.32 1.34 1.36 1.40 1.46 1.49 1.54 1.58 1.51 1.38 1.25
1.58 1.52 1.42 1.32 1.23 1.19 1.20 1.19 1.19 1.18 1.15 1.14 1.17 1.17 1.19 1.24 1.25 1.20 1.13 1.14 1.16 1.13 1.10 1.12 1.21 1.27 1.38 1.50 1.54 1.51 1.39 1.29 1.22 1.22 1.30 1.36 1.39 1.45 1.48 1.46 1.41 1.36 1.27 1.12
1.43 1.39 1.33 1.25 1.22 1.19 1.18 1.15 1.15 1.15 1.12 1.07 1.15 1.26 1.27 1.26 1.34 1.31 1.24 1.26 1.33 1.35 1.22 1.13 1.20 1.17 1.25 1.46 1.61 1.61 1.48 1.36 1.26 1.23 1.24 1.27 1.28 1.33 1.37 1.34 1.26 1.18 1.11 1.06
1.45 1.45 1.46 1.42 1.33 1.30 1.24 1.15 1.15 1.15 1.15 1.14 1.16 1.23 1.31 1.29 1.35 1.42 1.41 1.35 1.35 1.42 1.42 1.34 1.22 1.13 1.12 1.33 1.63 1.57 1.49 1.38 1.25 1.15 1.16 1.19 1.22 1.28 1.29 1.25 1.17 1.10 1.06 1.03
1.56 1.60 1.56 1.51 1.43 1.31 1.21 1.13 1.17 1.21 1.19 1.22 1.23 1.25 1.32 1.30 1.27 1.38 1.50 1.36 1.25 1.35 1.44 1.41 1.23 1.12 1.10 1.28 1.56 1.55 1.47 1.39 1.27 1.15 1.12 1.13 1.15 1.22 1.25 1.22 1.16 1.07 1.04 1.04
1.80 1.81 1.67 1.50 1.43 1.31 1.20 1.15 1.14 1.15 1.19 1.26 1.25 1.28 1.44 1.45 1.40 1.37 1.32 1.29 1.25 1.36 1.38 1.32 1.24 1.15 1.09 1.15 1.25 1.34 1.28 1.20 1.11 1.03 0.99 1.01 1.07 1.14 1.18 1.18 1.15 1.11 1.12 1.13
1.75 1.69 1.60 1.44 1.37 1.22 1.07 1.06 1.06 1.08 1.14 1.25 1.36 1.45 1.66 1.66 1.57 1.61 1.40 1.12 1.11 1.26 1.24 1.17 1.19 1.13 1.06 1.00 1.08 1.16 1.13 1.10 1.03 0.93 0.85 0.88 0.95 1.02 1.08 1.05 1.06 1.08 1.05 1.00
1.53 1.45 1.38 1.26 1.28 1.23 1.16 1.13 1.11 1.14 1.18 1.20 1.29 1.44 1.65 1.78 1.58 1.33 1.24 1.20 1.16 1.15 1.09 1.11 1.13 1.11 1.07 0.97 1.01 1.09 1.14 1.15 1.11 1.05 0.95 0.95 0.96 1.00 1.04 1.00 0.98 0.97 0.95 0.97
1.49 1.32 1.21 1.25 1.37 1.43 1.37 1.31 1.28 1.33 1.33 1.30 1.28 1.34 1.46 1.68 1.68 1.33 1.11 1.03 1.08 1.06 1.00 1.09 1.14 1.15 1.00 0.90 0.94 1.06 1.15 1.19 1.21 1.17 1.12 1.15 1.12 1.11 1.10 1.07 1.09 1.07 1.05 1.02
1.47 1.36 1.29 1.30 1.36 1.45 1.49 1.51 1.57 1.61 1.63 1.66 1.61 1.51 1.54 1.61 1.55 1.35 1.13 0.98 0.99 1.04 0.99 1.06 1.12 1.14 1.01 0.95 0.96 1.03 1.10 1.16 1.22 1.24 1.22 1.18 1.16 1.18 1.20 1.18 1.16 1.13 1.06 1.00
1.50 1.38 1.33 1.32 1.35 1.44 1.56 1.70 1.81 1.86 1.91 2.04 2.02 1.75 1.66 1.71 1.68 1.54 1.32 1.18 1.19 1.21 1.19 1.14 1.06 1.02 1.06 1.11 1.08 1.01 1.04 1.13 1.14 1.17 1.24 1.20 1.16 1.14 1.15 1.11 1.06 1.01 0.94 0.87